Wetterdaten: Samstag, 03.05.2014
Datum Zeit Temp. Aussen +5cm Feuchte Auss Luftdruck Regen Sonnenschein Regendauer UV Solar Windben
03.05.2014 00:00 8,3 C 7,2 C 84 % 1022,8 hPa 0,0 l/m 0 min 0 min 0,0 UV-I 0 W/m 7,7 km/h (2 Bft)
03.05.2014 00:02 8,3 C 7,2 C 84 % 1022,8 hPa 0,0 l/m 0 min 0 min 0,0 UV-I 0 W/m 0,0 km/h (0 Bft)
03.05.2014 00:06 8,3 C 7,2 C 84 % 1022,8 hPa 0,0 l/m 0 min 0 min 0,0 UV-I 0 W/m 5,1 km/h (1 Bft)
03.05.2014 00:08 8,3 C 7,2 C 84 % 1022,8 hPa 0,0 l/m 0 min 0 min 0,0 UV-I 0 W/m 7,7 km/h (2 Bft)
03.05.2014 00:10 8,3 C 7,2 C 84 % 1022,8 hPa 0,0 l/m 0 min 0 min 0,0 UV-I 0 W/m 7,7 km/h (2 Bft)
03.05.2014 00:12 8,3 C 7,2 C 84 % 1022,8 hPa 0,0 l/m 0 min 0 min 0,0 UV-I 0 W/m 5,1 km/h (1 Bft)
03.05.2014 00:14 8,3 C 7,2 C 84 % 1022,9 hPa 0,0 l/m 0 min 0 min 0,0 UV-I 0 W/m 7,7 km/h (2 Bft)
03.05.2014 00:16 8,3 C 7,2 C 84 % 1022,9 hPa 0,0 l/m 0 min 0 min 0,0 UV-I 0 W/m 2,6 km/h (1 Bft)
03.05.2014 00:18 8,3 C 7,2 C 85 % 1022,9 hPa 0,0 l/m 0 min 0 min 0,0 UV-I 0 W/m 10,3 km/h (2 Bft)
03.05.2014 00:20 8,3 C 7,2 C 85 % 1022,9 hPa 0,0 l/m 0 min 0 min 0,0 UV-I 0 W/m 0,0 km/h (0 Bft)
03.05.2014 00:22 8,3 C 7,2 C 85 % 1023,0 hPa 0,0 l/m 0 min 0 min 0,0 UV-I 0 W/m 5,1 km/h (1 Bft)
03.05.2014 00:24 8,3 C 7,2 C 85 % 1023,0 hPa 0,0 l/m 0 min 0 min 0,0 UV-I 0 W/m 7,7 km/h (2 Bft)
03.05.2014 00:26 8,3 C 7,2 C 85 % 1023,0 hPa 0,0 l/m 0 min 0 min 0,0 UV-I 0 W/m 7,7 km/h (2 Bft)
03.05.2014 00:28 8,3 C 7,2 C 85 % 1022,9 hPa 0,0 l/m 0 min 0 min 0,0 UV-I 0 W/m 0,0 km/h (0 Bft)
03.05.2014 00:30 8,2 C 7,2 C 84 % 1023,0 hPa 0,0 l/m 0 min 0 min 0,0 UV-I 0 W/m 2,6 km/h (1 Bft)
03.05.2014 00:32 8,2 C 7,2 C 85 % 1023,1 hPa 0,0 l/m 0 min 0 min 0,0 UV-I 0 W/m 7,7 km/h (2 Bft)
03.05.2014 00:34 8,3 C 7,2 C 85 % 1023,0 hPa 0,0 l/m 0 min 0 min 0,0 UV-I 0 W/m 5,1 km/h (1 Bft)
03.05.2014 00:36 8,3 C 7,2 C 84 % 1023,1 hPa 0,0 l/m 0 min 0 min 0,0 UV-I 0 W/m 5,1 km/h (1 Bft)
03.05.2014 00:38 8,2 C 7,2 C 84 % 1023,1 hPa 0,0 l/m 0 min 0 min 0,0 UV-I 0 W/m 7,7 km/h (2 Bft)
03.05.2014 00:40 8,3 C 7,2 C 84 % 1023,0 hPa 0,0 l/m 0 min 0 min 0,0 UV-I 0 W/m 7,7 km/h (2 Bft)
03.05.2014 00:42 8,3 C 7,2 C 84 % 1023,1 hPa 0,0 l/m 0 min 0 min 0,0 UV-I 0 W/m 0,0 km/h (0 Bft)
03.05.2014 00:44 8,3 C 7,2 C 84 % 1023,1 hPa 0,0 l/m 0 min 0 min 0,0 UV-I 0 W/m 7,7 km/h (2 Bft)
03.05.2014 00:46 8,3 C 7,2 C 84 % 1023,1 hPa 0,0 l/m 0 min 0 min 0,0 UV-I 0 W/m 7,7 km/h (2 Bft)
03.05.2014 00:48 8,3 C 7,2 C 84 % 1023,1 hPa 0,0 l/m 0 min 0 min 0,0 UV-I 0 W/m 10,3 km/h (2 Bft)
03.05.2014 00:50 8,3 C 7,2 C 84 % 1023,1 hPa 0,0 l/m 0 min 0 min 0,0 UV-I 0 W/m 12,9 km/h (3 Bft)
03.05.2014 00:52 8,3 C 7,2 C 84 % 1023,1 hPa 0,0 l/m 0 min 0 min 0,0 UV-I 0 W/m 7,7 km/h (2 Bft)
03.05.2014 00:54 8,3 C 7,2 C 84 % 1023,1 hPa 0,0 l/m 0 min 0 min 0,0 UV-I 0 W/m 10,3 km/h (2 Bft)
03.05.2014 00:56 8,3 C 7,2 C 84 % 1023,1 hPa 0,0 l/m 0 min 0 min 0,0 UV-I 0 W/m 7,7 km/h (2 Bft)
03.05.2014 00:58 8,3 C 7,2 C 84 % 1023,1 hPa 0,0 l/m 0 min 0 min 0,0 UV-I 0 W/m 5,1 km/h (1 Bft)
03.05.2014 01:00 8,3 C 7,2 C 84 % 1023,1 hPa 0,0 l/m 0 min 0 min 0,0 UV-I 0 W/m 2,6 km/h (1 Bft)
03.05.2014 01:02 8,2 C 7,2 C 84 % 1023,1 hPa 0,0 l/m 0 min 0 min 0,0 UV-I 0 W/m 0,0 km/h (0 Bft)
03.05.2014 01:06 8,2 C 7,2 C 84 % 1023,1 hPa 0,0 l/m 0 min 0 min 0,0 UV-I 0 W/m 5,1 km/h (1 Bft)
03.05.2014 01:08 8,2 C 7,2 C 84 % 1023,2 hPa 0,0 l/m 0 min 0 min 0,0 UV-I 0 W/m 0,0 km/h (0 Bft)
03.05.2014 01:10 8,2 C 7,2 C 84 % 1023,2 hPa 0,0 l/m 0 min 0 min 0,0 UV-I 0 W/m 2,6 km/h (1 Bft)
03.05.2014 01:12 8,2 C 7,2 C 84 % 1023,2 hPa 0,0 l/m 0 min 0 min 0,0 UV-I 0 W/m 2,6 km/h (1 Bft)
03.05.2014 01:14 8,2 C 7,2 C 84 % 1023,2 hPa 0,0 l/m 0 min 0 min 0,0 UV-I 0 W/m 0,0 km/h (0 Bft)
03.05.2014 01:16 8,2 C 7,2 C 84 % 1023,2 hPa 0,0 l/m 0 min 0 min 0,0 UV-I 0 W/m 0,0 km/h (0 Bft)
03.05.2014 01:18 8,2 C 7,2 C 84 % 1023,1 hPa 0,0 l/m 0 min 0 min 0,0 UV-I 0 W/m 0,0 km/h (0 Bft)
03.05.2014 01:20 8,2 C 7,2 C 84 % 1023,1 hPa 0,0 l/m 0 min 0 min 0,0 UV-I 0 W/m 5,1 km/h (1 Bft)
03.05.2014 01:22 8,2 C 7,2 C 84 % 1023,1 hPa 0,0 l/m 0 min 0 min 0,0 UV-I 0 W/m 12,9 km/h (3 Bft)
03.05.2014 01:24 8,2 C 7,2 C 84 % 1023,1 hPa 0,0 l/m 0 min 0 min 0,0 UV-I 0 W/m 0,0 km/h (0 Bft)
03.05.2014 01:26 8,2 C 7,2 C 84 % 1023,0 hPa 0,0 l/m 0 min 0 min 0,0 UV-I 0 W/m 0,0 km/h (0 Bft)
03.05.2014 01:28 8,2 C 7,2 C 84 % 1023,0 hPa 0,0 l/m 0 min 0 min 0,0 UV-I 0 W/m 0,0 km/h (0 Bft)
03.05.2014 01:30 8,2 C 7,2 C 84 % 1023,1 hPa 0,0 l/m 0 min 0 min 0,0 UV-I 0 W/m 7,7 km/h (2 Bft)
03.05.2014 01:32 8,2 C 7,2 C 84 % 1023,1 hPa 0,0 l/m 0 min 0 min 0,0 UV-I 0 W/m 7,7 km/h (2 Bft)
03.05.2014 01:34 8,2 C 7,2 C 83 % 1023,0 hPa 0,0 l/m 0 min 0 min 0,0 UV-I 0 W/m 2,6 km/h (1 Bft)
03.05.2014 01:36 8,2 C 7,2 C 83 % 1023,1 hPa 0,0 l/m 0 min 0 min 0,0 UV-I 0 W/m 0,0 km/h (0 Bft)
03.05.2014 01:38 8,2 C 7,2 C 83 % 1023,0 hPa 0,0 l/m 0 min 0 min 0,0 UV-I 0 W/m 0,0 km/h (0 Bft)
03.05.2014 01:40 8,1 C 7,2 C 83 % 1023,1 hPa 0,0 l/m 0 min 0 min 0,0 UV-I 0 W/m 2,6 km/h (1 Bft)
03.05.2014 01:42 8,2 C 7,2 C 83 % 1023,0 hPa 0,0 l/m 0 min 0 min 0,0 UV-I 0 W/m 0,0 km/h (0 Bft)
03.05.2014 01:44 8,1 C 7,2 C 82 % 1023,0 hPa 0,0 l/m 0 min 0 min 0,0 UV-I 0 W/m 7,7 km/h (2 Bft)
03.05.2014 01:46 8,1 C 7,2 C 82 % 1023,0 hPa 0,0 l/m 0 min 0 min 0,0 UV-I 0 W/m 5,1 km/h (1 Bft)
03.05.2014 01:48 8,2 C 7,2 C 82 % 1023,1 hPa 0,0 l/m 0 min 0 min 0,0 UV-I 0 W/m 7,7 km/h (2 Bft)
03.05.2014 01:50 8,1 C 7,2 C 81 % 1023,1 hPa 0,0 l/m 0 min 0 min 0,0 UV-I 0 W/m 10,3 km/h (2 Bft)
03.05.2014 01:52 8,1 C 7,2 C 81 % 1023,1 hPa 0,0 l/m 0 min 0 min 0,0 UV-I 0 W/m 10,3 km/h (2 Bft)
03.05.2014 01:54 8,2 C 7,2 C 81 % 1023,0 hPa 0,0 l/m 0 min 0 min 0,0 UV-I 0 W/m 7,7 km/h (2 Bft)
03.05.2014 01:56 8,2 C 7,2 C 81 % 1023,1 hPa 0,0 l/m 0 min 0 min 0,0 UV-I 0 W/m 0,0 km/h (0 Bft)
03.05.2014 01:58 8,1 C 7,2 C 81 % 1023,0 hPa 0,0 l/m 0 min 0 min 0,0 UV-I 0 W/m 5,1 km/h (1 Bft)
03.05.2014 02:00 8,1 C 7,2 C 81 % 1023,0 hPa 0,0 l/m 0 min 0 min 0,0 UV-I 0 W/m 7,7 km/h (2 Bft)
03.05.2014 02:02 8,1 C 7,2 C 81 % 1023,0 hPa 0,0 l/m 0 min 0 min 0,0 UV-I 0 W/m 10,3 km/h (2 Bft)
03.05.2014 02:06 8,1 C 7,2 C 81 % 1023,0 hPa 0,0 l/m 0 min 0 min 0,0 UV-I 0 W/m 12,9 km/h (3 Bft)
03.05.2014 02:08 8,1 C 7,2 C 81 % 1023,0 hPa 0,0 l/m 0 min 0 min 0,0 UV-I 0 W/m 10,3 km/h (2 Bft)
03.05.2014 02:10 8,1 C 7,2 C 81 % 1023,0 hPa 0,0 l/m 0 min 0 min 0,0 UV-I 0 W/m 7,7 km/h (2 Bft)
03.05.2014 02:12 8,1 C 7,2 C 81 % 1023,0 hPa 0,0 l/m 0 min 0 min 0,0 UV-I 0 W/m 10,3 km/h (2 Bft)
03.05.2014 02:14 8,0 C 7,2 C 81 % 1023,0 hPa 0,0 l/m 0 min 0 min 0,0 UV-I 0 W/m 18,0 km/h (3 Bft)
03.05.2014 02:16 8,0 C 7,2 C 80 % 1023,1 hPa 0,0 l/m 0 min 0 min 0,0 UV-I 0 W/m 12,9 km/h (3 Bft)
03.05.2014 02:18 7,9 C 7,2 C 80 % 1023,0 hPa 0,0 l/m 0 min 0 min 0,0 UV-I 0 W/m 12,9 km/h (3 Bft)
03.05.2014 02:20 7,9 C 6,7 C 79 % 1023,1 hPa 0,0 l/m 0 min 0 min 0,0 UV-I 0 W/m 15,4 km/h (3 Bft)
03.05.2014 02:22 7,9 C 6,7 C 79 % 1023,0 hPa 0,0 l/m 0 min 0 min 0,0 UV-I 0 W/m 12,9 km/h (3 Bft)
03.05.2014 02:24 7,9 C 6,7 C 78 % 1023,0 hPa 0,0 l/m 0 min 0 min 0,0 UV-I 0 W/m 12,9 km/h (3 Bft)
03.05.2014 02:26 7,9 C 6,7 C 78 % 1023,0 hPa 0,0 l/m 0 min 0 min 0,0 UV-I 0 W/m 12,9 km/h (3 Bft)
03.05.2014 02:28 7,9 C 6,7 C 78 % 1023,1 hPa 0,0 l/m 0 min 0 min 0,0 UV-I 0 W/m 15,4 km/h (3 Bft)
03.05.2014 02:30 7,9 C 6,7 C 78 % 1023,0 hPa 0,0 l/m 0 min 0 min 0,0 UV-I 0 W/m 15,4 km/h (3 Bft)
03.05.2014 02:32 7,9 C 6,7 C 78 % 1023,0 hPa 0,0 l/m 0 min 0 min 0,0 UV-I 0 W/m 15,4 km/h (3 Bft)
03.05.2014 02:34 7,9 C 6,7 C 78 % 1023,0 hPa 0,0 l/m 0 min 0 min 0,0 UV-I 0 W/m 10,3 km/h (2 Bft)
03.05.2014 02:36 7,8 C 6,7 C 78 % 1023,0 hPa 0,0 l/m 0 min 0 min 0,0 UV-I 0 W/m 2,6 km/h (1 Bft)
03.05.2014 02:38 7,8 C 6,7 C 78 % 1022,9 hPa 0,0 l/m 0 min 0 min 0,0 UV-I 0 W/m 12,9 km/h (3 Bft)
03.05.2014 02:40 7,8 C 6,7 C 78 % 1023,0 hPa 0,0 l/m 0 min 0 min 0,0 UV-I 0 W/m 12,9 km/h (3 Bft)
03.05.2014 02:42 7,8 C 6,7 C 78 % 1023,0 hPa 0,0 l/m 0 min 0 min 0,0 UV-I 0 W/m 12,9 km/h (3 Bft)
03.05.2014 02:44 7,7 C 6,7 C 77 % 1023,0 hPa 0,0 l/m 0 min 0 min 0,0 UV-I 0 W/m 7,7 km/h (2 Bft)
03.05.2014 02:46 7,7 C 6,7 C 77 % 1023,0 hPa 0,0 l/m 0 min 0 min 0,0 UV-I 0 W/m 7,7 km/h (2 Bft)
03.05.2014 02:48 7,7 C 6,7 C 77 % 1023,0 hPa 0,0 l/m 0 min 0 min 0,0 UV-I 0 W/m 7,7 km/h (2 Bft)
03.05.2014 02:50 7,7 C 6,7 C 77 % 1023,1 hPa 0,0 l/m 0 min 0 min 0,0 UV-I 0 W/m 7,7 km/h (2 Bft)
03.05.2014 02:52 7,7 C 6,7 C 77 % 1023,0 hPa 0,0 l/m 0 min 0 min 0,0 UV-I 0 W/m 10,3 km/h (2 Bft)
03.05.2014 02:54 7,7 C 6,7 C 77 % 1023,0 hPa 0,0 l/m 0 min 0 min 0,0 UV-I 0 W/m 10,3 km/h (2 Bft)
03.05.2014 02:56 7,7 C 6,7 C 77 % 1023,1 hPa 0,0 l/m 0 min 0 min 0,0 UV-I 0 W/m 15,4 km/h (3 Bft)
03.05.2014 02:58 7,6 C 6,7 C 76 % 1023,1 hPa 0,0 l/m 0 min 0 min 0,0 UV-I 0 W/m 10,3 km/h (2 Bft)
03.05.2014 03:00 7,6 C 6,7 C 76 % 1023,1 hPa 0,0 l/m 0 min 0 min 0,0 UV-I 0 W/m 12,9 km/h (3 Bft)
03.05.2014 03:02 7,6 C 6,7 C 76 % 1023,1 hPa 0,0 l/m 0 min 0 min 0,0 UV-I 0 W/m 12,9 km/h (3 Bft)
03.05.2014 03:06 7,6 C 6,7 C 76 % 1023,2 hPa 0,0 l/m 0 min 0 min 0,0 UV-I 0 W/m 18,0 km/h (3 Bft)
03.05.2014 03:08 7,5 C 6,7 C 76 % 1023,2 hPa 0,0 l/m 0 min 0 min 0,0 UV-I 0 W/m 10,3 km/h (2 Bft)
03.05.2014 03:10 7,5 C 6,7 C 76 % 1023,2 hPa 0,0 l/m 0 min 0 min 0,0 UV-I 0 W/m 7,7 km/h (2 Bft)
03.05.2014 03:12 7,4 C 6,7 C 76 % 1023,2 hPa 0,0 l/m 0 min 0 min 0,0 UV-I 0 W/m 10,3 km/h (2 Bft)
03.05.2014 03:14 7,4 C 6,1 C 76 % 1023,2 hPa 0,0 l/m 0 min 0 min 0,0 UV-I 0 W/m 10,3 km/h (2 Bft)
03.05.2014 03:16 7,4 C 6,1 C 77 % 1023,2 hPa 0,0 l/m 0 min 0 min 0,0 UV-I 0 W/m 10,3 km/h (2 Bft)
03.05.2014 03:18 7,4 C 6,1 C 77 % 1023,2 hPa 0,0 l/m 0 min 0 min 0,0 UV-I 0 W/m 10,3 km/h (2 Bft)
03.05.2014 03:20 7,3 C 6,1 C 77 % 1023,2 hPa 0,0 l/m 0 min 0 min 0,0 UV-I 0 W/m 0,0 km/h (0 Bft)
03.05.2014 03:22 7,3 C 6,1 C 77 % 1023,2 hPa 0,0 l/m 0 min 0 min 0,0 UV-I 0 W/m 7,7 km/h (2 Bft)
03.05.2014 03:24 7,3 C 6,1 C 77 % 1023,2 hPa 0,0 l/m 0 min 0 min 0,0 UV-I 0 W/m 12,9 km/h (3 Bft)
03.05.2014 03:26 7,2 C 6,1 C 77 % 1023,2 hPa 0,0 l/m 0 min 0 min 0,0 UV-I 0 W/m 7,7 km/h (2 Bft)
03.05.2014 03:28 7,2 C 6,1 C 77 % 1023,2 hPa 0,0 l/m 0 min 0 min 0,0 UV-I 0 W/m 12,9 km/h (3 Bft)
03.05.2014 03:30 7,2 C 6,1 C 78 % 1023,2 hPa 0,0 l/m 0 min 0 min 0,0 UV-I 0 W/m 12,9 km/h (3 Bft)
03.05.2014 03:32 7,2 C 6,1 C 78 % 1023,2 hPa 0,0 l/m 0 min 0 min 0,0 UV-I 0 W/m 10,3 km/h (2 Bft)
03.05.2014 03:34 7,2 C 6,1 C 78 % 1023,3 hPa 0,0 l/m 0 min 0 min 0,0 UV-I 0 W/m 12,9 km/h (3 Bft)
03.05.2014 03:36 7,2 C 6,1 C 78 % 1023,3 hPa 0,0 l/m 0 min 0 min 0,0 UV-I 0 W/m 7,7 km/h (2 Bft)
03.05.2014 03:38 7,1 C 6,1 C 78 % 1023,3 hPa 0,0 l/m 0 min 0 min 0,0 UV-I 0 W/m 10,3 km/h (2 Bft)
03.05.2014 03:40 7,1 C 6,1 C 78 % 1023,3 hPa 0,0 l/m 0 min 0 min 0,0 UV-I 0 W/m 10,3 km/h (2 Bft)
03.05.2014 03:42 7,1 C 6,1 C 78 % 1023,4 hPa 0,0 l/m 0 min 0 min 0,0 UV-I 0 W/m 12,9 km/h (3 Bft)
03.05.2014 03:44 7,1 C 6,1 C 79 % 1023,3 hPa 0,0 l/m 0 min 0 min 0,0 UV-I 0 W/m 10,3 km/h (2 Bft)
03.05.2014 03:46 7,0 C 6,1 C 79 % 1023,4 hPa 0,0 l/m 0 min 0 min 0,0 UV-I 0 W/m 10,3 km/h (2 Bft)
03.05.2014 03:48 7,0 C 6,1 C 79 % 1023,4 hPa 0,0 l/m 0 min 0 min 0,0 UV-I 0 W/m 5,1 km/h (1 Bft)
03.05.2014 03:50 7,0 C 6,1 C 79 % 1023,4 hPa 0,0 l/m 0 min 0 min 0,0 UV-I 0 W/m 7,7 km/h (2 Bft)
03.05.2014 03:52 6,9 C 6,1 C 79 % 1023,4 hPa 0,0 l/m 0 min 0 min 0,0 UV-I 0 W/m 0,0 km/h (0 Bft)
03.05.2014 03:54 6,9 C 6,1 C 79 % 1023,5 hPa 0,0 l/m 0 min 0 min 0,0 UV-I 0 W/m 12,9 km/h (3 Bft)
03.05.2014 03:56 6,9 C 6,1 C 79 % 1023,5 hPa 0,0 l/m 0 min 0 min 0,0 UV-I 0 W/m 12,9 km/h (3 Bft)
03.05.2014 03:58 6,9 C 5,6 C 79 % 1023,5 hPa 0,0 l/m 0 min 0 min 0,0 UV-I 0 W/m 12,9 km/h (3 Bft)
03.05.2014 04:00 6,9 C 5,6 C 79 % 1023,5 hPa 0,0 l/m 0 min 0 min 0,0 UV-I 0 W/m 12,9 km/h (3 Bft)
03.05.2014 04:01 6,8 C 5,6 C 79 % 1023,5 hPa 0,0 l/m 0 min 0 min 0,0 UV-I 0 W/m 0,0 km/h (0 Bft)
03.05.2014 04:02 6,8 C 5,6 C 79 % 1023,5 hPa 0,0 l/m 0 min 0 min 0,0 UV-I 0 W/m 0,0 km/h (0 Bft)
03.05.2014 04:03 6,8 C 5,6 C 79 % 1023,5 hPa 0,0 l/m 0 min 0 min 0,0 UV-I 0 W/m 0,0 km/h (0 Bft)
03.05.2014 04:04 6,8 C 5,6 C 79 % 1023,5 hPa 0,0 l/m 0 min 0 min 0,0 UV-I 0 W/m 0,0 km/h (0 Bft)
03.05.2014 04:05 6,8 C 5,6 C 79 % 1023,5 hPa 0,0 l/m 0 min 0 min 0,0 UV-I 0 W/m 0,0 km/h (0 Bft)
03.05.2014 04:06 6,8 C 5,6 C 79 % 1023,5 hPa 0,0 l/m 0 min 0 min 0,0 UV-I 0 W/m 0,0 km/h (0 Bft)
03.05.2014 04:07 6,8 C 5,6 C 80 % 1023,5 hPa 0,0 l/m 0 min 0 min 0,0 UV-I 0 W/m 7,7 km/h (2 Bft)
03.05.2014 04:10 6,7 C 5,6 C 80 % 1023,4 hPa 0,0 l/m 0 min 0 min 0,0 UV-I 0 W/m 10,3 km/h (2 Bft)
03.05.2014 04:12 6,6 C 5,6 C 80 % 1023,4 hPa 0,0 l/m 0 min 0 min 0,0 UV-I 0 W/m 10,3 km/h (2 Bft)
03.05.2014 04:14 6,5 C 5,6 C 80 % 1023,5 hPa 0,0 l/m 0 min 0 min 0,0 UV-I 0 W/m 5,1 km/h (1 Bft)
03.05.2014 04:16 6,4 C 5,0 C 80 % 1023,4 hPa 0,0 l/m 0 min 0 min 0,0 UV-I 0 W/m 7,7 km/h (2 Bft)
03.05.2014 04:18 6,4 C 5,0 C 80 % 1023,4 hPa 0,0 l/m 0 min 0 min 0,0 UV-I 0 W/m 7,7 km/h (2 Bft)
03.05.2014 04:20 6,3 C 5,0 C 81 % 1023,5 hPa 0,0 l/m 0 min 0 min 0,0 UV-I 0 W/m 7,7 km/h (2 Bft)
03.05.2014 04:22 6,3 C 5,0 C 81 % 1023,6 hPa 0,0 l/m 0 min 0 min 0,0 UV-I 0 W/m 10,3 km/h (2 Bft)
03.05.2014 04:24 6,2 C 5,0 C 81 % 1023,5 hPa 0,0 l/m 0 min 0 min 0,0 UV-I 0 W/m 10,3 km/h (2 Bft)
03.05.2014 04:26 6,2 C 5,0 C 81 % 1023,6 hPa 0,0 l/m 0 min 0 min 0,0 UV-I 0 W/m 10,3 km/h (2 Bft)
03.05.2014 04:28 6,1 C 5,0 C 81 % 1023,6 hPa 0,0 l/m 0 min 0 min 0,0 UV-I 0 W/m 7,7 km/h (2 Bft)
03.05.2014 04:30 6,0 C 5,0 C 81 % 1023,6 hPa 0,0 l/m 0 min 0 min 0,0 UV-I 0 W/m 7,7 km/h (2 Bft)
03.05.2014 04:32 5,9 C 5,0 C 81 % 1023,6 hPa 0,0 l/m 0 min 0 min 0,0 UV-I 0 W/m 12,9 km/h (3 Bft)
03.05.2014 04:34 5,9 C 4,4 C 81 % 1023,6 hPa 0,0 l/m 0 min 0 min 0,0 UV-I 0 W/m 7,7 km/h (2 Bft)
03.05.2014 04:36 5,8 C 4,4 C 81 % 1023,6 hPa 0,0 l/m 0 min 0 min 0,0 UV-I 0 W/m 7,7 km/h (2 Bft)
03.05.2014 04:38 5,8 C 4,4 C 81 % 1023,6 hPa 0,0 l/m 0 min 0 min 0,0 UV-I 0 W/m 12,9 km/h (3 Bft)
03.05.2014 04:40 5,7 C 4,4 C 82 % 1023,6 hPa 0,0 l/m 0 min 0 min 0,0 UV-I 0 W/m 7,7 km/h (2 Bft)
03.05.2014 04:42 5,7 C 4,4 C 82 % 1023,6 hPa 0,0 l/m 0 min 0 min 0,0 UV-I 0 W/m 10,3 km/h (2 Bft)
03.05.2014 04:44 5,7 C 4,4 C 82 % 1023,6 hPa 0,0 l/m 0 min 0 min 0,0 UV-I 0 W/m 10,3 km/h (2 Bft)
03.05.2014 04:46 5,7 C 4,4 C 82 % 1023,5 hPa 0,0 l/m 0 min 0 min 0,0 UV-I 0 W/m 7,7 km/h (2 Bft)
03.05.2014 04:48 5,6 C 4,4 C 82 % 1023,5 hPa 0,0 l/m 0 min 0 min 0,0 UV-I 0 W/m 5,1 km/h (1 Bft)
03.05.2014 04:50 5,6 C 4,4 C 82 % 1023,6 hPa 0,0 l/m 0 min 0 min 0,0 UV-I 0 W/m 7,7 km/h (2 Bft)
03.05.2014 04:52 5,5 C 4,4 C 83 % 1023,6 hPa 0,0 l/m 0 min 0 min 0,0 UV-I 0 W/m 12,9 km/h (3 Bft)
03.05.2014 04:54 5,4 C 4,4 C 83 % 1023,6 hPa 0,0 l/m 0 min 0 min 0,0 UV-I 0 W/m 7,7 km/h (2 Bft)
03.05.2014 04:56 5,4 C 4,4 C 83 % 1023,6 hPa 0,0 l/m 0 min 0 min 0,0 UV-I 0 W/m 10,3 km/h (2 Bft)
03.05.2014 04:58 5,3 C 4,4 C 83 % 1023,7 hPa 0,0 l/m 0 min 0 min 0,0 UV-I 0 W/m 2,6 km/h (1 Bft)
03.05.2014 05:00 5,3 C 3,9 C 83 % 1023,7 hPa 0,0 l/m 0 min 0 min 0,0 UV-I 0 W/m 0,0 km/h (0 Bft)
03.05.2014 05:02 5,2 C 3,9 C 84 % 1023,7 hPa 0,0 l/m 0 min 0 min 0,0 UV-I 0 W/m 5,1 km/h (1 Bft)
03.05.2014 05:06 5,2 C 3,9 C 84 % 1023,7 hPa 0,0 l/m 0 min 0 min 0,0 UV-I 0 W/m 10,3 km/h (2 Bft)
03.05.2014 05:08 5,2 C 3,9 C 84 % 1023,8 hPa 0,0 l/m 0 min 0 min 0,0 UV-I 0 W/m 10,3 km/h (2 Bft)
03.05.2014 05:10 5,2 C 3,9 C 84 % 1023,9 hPa 0,0 l/m 0 min 0 min 0,0 UV-I 0 W/m 2,6 km/h (1 Bft)
03.05.2014 05:12 5,1 C 3,9 C 84 % 1023,9 hPa 0,0 l/m 0 min 0 min 0,0 UV-I 0 W/m 10,3 km/h (2 Bft)
03.05.2014 05:14 5,1 C 3,9 C 85 % 1023,8 hPa 0,0 l/m 0 min 0 min 0,0 UV-I 0 W/m 7,7 km/h (2 Bft)
03.05.2014 05:16 5,1 C 3,9 C 85 % 1023,8 hPa 0,0 l/m 0 min 0 min 0,0 UV-I 0 W/m 2,6 km/h (1 Bft)
03.05.2014 05:18 5,1 C 3,9 C 85 % 1023,8 hPa 0,0 l/m 0 min 0 min 0,0 UV-I 0 W/m 2,6 km/h (1 Bft)
03.05.2014 05:20 5,0 C 3,9 C 85 % 1023,7 hPa 0,0 l/m 0 min 0 min 0,0 UV-I 0 W/m 0,0 km/h (0 Bft)
03.05.2014 05:22 5,0 C 3,9 C 85 % 1023,8 hPa 0,0 l/m 0 min 0 min 0,0 UV-I 0 W/m 12,9 km/h (3 Bft)
03.05.2014 05:24 4,9 C 3,9 C 85 % 1023,7 hPa 0,0 l/m 0 min 0 min 0,0 UV-I 0 W/m 12,9 km/h (3 Bft)
03.05.2014 05:26 4,9 C 3,9 C 85 % 1023,8 hPa 0,0 l/m 0 min 0 min 0,0 UV-I 0 W/m 10,3 km/h (2 Bft)
03.05.2014 05:28 4,9 C 3,9 C 85 % 1023,9 hPa 0,0 l/m 0 min 0 min 0,0 UV-I 0 W/m 2,6 km/h (1 Bft)
03.05.2014 05:30 4,9 C 3,9 C 85 % 1023,9 hPa 0,0 l/m 0 min 0 min 0,0 UV-I 0 W/m 2,6 km/h (1 Bft)
03.05.2014 05:32 4,9 C 3,9 C 85 % 1023,9 hPa 0,0 l/m 0 min 0 min 0,0 UV-I 0 W/m 0,0 km/h (0 Bft)
03.05.2014 05:34 4,8 C 3,9 C 85 % 1023,9 hPa 0,0 l/m 0 min 0 min 0,0 UV-I 0 W/m 2,6 km/h (1 Bft)
03.05.2014 05:36 4,8 C 3,9 C 85 % 1023,9 hPa 0,0 l/m 0 min 0 min 0,0 UV-I 0 W/m 7,7 km/h (2 Bft)
03.05.2014 05:38 4,8 C 3,9 C 85 % 1023,9 hPa 0,0 l/m 0 min 0 min 0,0 UV-I 0 W/m 10,3 km/h (2 Bft)
03.05.2014 05:40 4,8 C 3,9 C 86 % 1024,0 hPa 0,0 l/m 0 min 0 min 0,0 UV-I 0 W/m 10,3 km/h (2 Bft)
03.05.2014 05:42 4,7 C 3,9 C 86 % 1024,0 hPa 0,0 l/m 0 min 0 min 0,0 UV-I 0 W/m 10,3 km/h (2 Bft)
03.05.2014 05:44 4,7 C 3,9 C 86 % 1024,0 hPa 0,0 l/m 0 min 0 min 0,0 UV-I 0 W/m 10,3 km/h (2 Bft)
03.05.2014 05:46 4,7 C 3,3 C 86 % 1024,1 hPa 0,0 l/m 0 min 0 min 0,0 UV-I 0 W/m 5,1 km/h (1 Bft)
03.05.2014 05:48 4,7 C 3,3 C 86 % 1024,0 hPa 0,0 l/m 0 min 0 min 0,0 UV-I 0 W/m 0,0 km/h (0 Bft)
03.05.2014 05:50 4,6 C 3,3 C 86 % 1024,0 hPa 0,0 l/m 0 min 0 min 0,0 UV-I 0 W/m 0,0 km/h (0 Bft)
03.05.2014 05:52 4,6 C 3,3 C 86 % 1024,0 hPa 0,0 l/m 0 min 0 min 0,0 UV-I 0 W/m 10,3 km/h (2 Bft)
03.05.2014 05:54 4,6 C 3,3 C 86 % 1024,0 hPa 0,0 l/m 0 min 0 min 0,0 UV-I 0 W/m 5,1 km/h (1 Bft)
03.05.2014 05:56 4,5 C 3,3 C 86 % 1024,0 hPa 0,0 l/m 0 min 0 min 0,0 UV-I 0 W/m 0,0 km/h (0 Bft)
03.05.2014 05:58 4,5 C 3,3 C 87 % 1024,1 hPa 0,0 l/m 0 min 0 min 0,0 UV-I 0 W/m 0,0 km/h (0 Bft)
03.05.2014 06:00 4,5 C 3,3 C 87 % 1024,1 hPa 0,0 l/m 0 min 0 min 0,0 UV-I 0 W/m 10,3 km/h (2 Bft)
03.05.2014 06:02 4,4 C 3,3 C 87 % 1024,1 hPa 0,0 l/m 0 min 0 min 0,0 UV-I 5 W/m 0,0 km/h (0 Bft)
03.05.2014 06:06 4,4 C 3,3 C 87 % 1024,1 hPa 0,0 l/m 0 min 0 min 0,0 UV-I 5 W/m 7,7 km/h (2 Bft)
03.05.2014 06:08 4,3 C 3,3 C 87 % 1024,2 hPa 0,0 l/m 0 min 0 min 0,0 UV-I 5 W/m 0,0 km/h (0 Bft)
03.05.2014 06:10 4,3 C 3,3 C 88 % 1024,2 hPa 0,0 l/m 0 min 0 min 0,0 UV-I 7 W/m 0,0 km/h (0 Bft)
03.05.2014 06:12 4,3 C 3,3 C 88 % 1024,2 hPa 0,0 l/m 0 min 0 min 0,0 UV-I 7 W/m 0,0 km/h (0 Bft)
03.05.2014 06:14 4,2 C 3,3 C 88 % 1024,2 hPa 0,0 l/m 0 min 0 min 0,0 UV-I 9 W/m 10,3 km/h (2 Bft)
03.05.2014 06:16 4,2 C 3,3 C 88 % 1024,2 hPa 0,0 l/m 0 min 0 min 0,0 UV-I 9 W/m 0,0 km/h (0 Bft)
03.05.2014 06:18 4,2 C 3,3 C 88 % 1024,2 hPa 0,0 l/m 0 min 0 min 0,0 UV-I 11 W/m 0,0 km/h (0 Bft)
03.05.2014 06:20 4,2 C 3,3 C 88 % 1024,2 hPa 0,0 l/m 0 min 0 min 0,0 UV-I 11 W/m 0,0 km/h (0 Bft)
03.05.2014 06:22 4,2 C 3,3 C 88 % 1024,2 hPa 0,0 l/m 0 min 0 min 0,0 UV-I 11 W/m 2,6 km/h (1 Bft)
03.05.2014 06:24 4,2 C 3,3 C 88 % 1024,2 hPa 0,0 l/m 0 min 0 min 0,0 UV-I 12 W/m 0,0 km/h (0 Bft)
03.05.2014 06:26 4,2 C 3,3 C 88 % 1024,2 hPa 0,0 l/m 0 min 0 min 0,0 UV-I 12 W/m 0,0 km/h (0 Bft)
03.05.2014 06:28 4,1 C 3,3 C 89 % 1024,2 hPa 0,0 l/m 0 min 0 min 0,0 UV-I 14 W/m 0,0 km/h (0 Bft)
03.05.2014 06:30 4,1 C 3,3 C 89 % 1024,2 hPa 0,0 l/m 0 min 0 min 0,0 UV-I 14 W/m 0,0 km/h (0 Bft)
03.05.2014 06:32 4,1 C 3,3 C 89 % 1024,2 hPa 0,0 l/m 0 min 0 min 0,0 UV-I 14 W/m 0,0 km/h (0 Bft)
03.05.2014 06:34 4,1 C 3,3 C 89 % 1024,2 hPa 0,0 l/m 0 min 0 min 0,0 UV-I 16 W/m 0,0 km/h (0 Bft)
03.05.2014 06:36 4,1 C 3,3 C 89 % 1024,2 hPa 0,0 l/m 0 min 0 min 0,0 UV-I 16 W/m 2,6 km/h (1 Bft)
03.05.2014 06:38 4,1 C 3,3 C 89 % 1024,2 hPa 0,0 l/m 0 min 0 min 0,0 UV-I 18 W/m 5,1 km/h (1 Bft)
03.05.2014 06:39 4,1 C 3,3 C 89 % 1024,2 hPa 0,0 l/m 0 min 0 min 0,0 UV-I 18 W/m 7,7 km/h (2 Bft)
03.05.2014 06:40 4,1 C 3,3 C 89 % 1024,2 hPa 0,0 l/m 0 min 0 min 0,0 UV-I 18 W/m 12,9 km/h (3 Bft)
03.05.2014 06:41 4,1 C 3,3 C 89 % 1024,2 hPa 0,0 l/m 0 min 0 min 0,0 UV-I 18 W/m 7,7 km/h (2 Bft)
03.05.2014 06:42 4,2 C 3,3 C 89 % 1024,2 hPa 0,0 l/m 0 min 0 min 0,0 UV-I 18 W/m 0,0 km/h (0 Bft)
03.05.2014 06:43 4,2 C 3,3 C 89 % 1024,3 hPa 0,0 l/m 0 min 0 min 0,0 UV-I 19 W/m 0,0 km/h (0 Bft)
03.05.2014 06:46 4,2 C 3,3 C 94 % 1024,3 hPa 0,0 l/m 0 min 0 min 0,0 UV-I 19 W/m 0,0 km/h (0 Bft)
03.05.2014 06:48 4,2 C 3,3 C 89 % 1024,3 hPa 0,0 l/m 0 min 0 min 0,0 UV-I 21 W/m 2,6 km/h (1 Bft)
03.05.2014 06:50 4,2 C 3,3 C 89 % 1024,3 hPa 0,0 l/m 0 min 0 min 0,0 UV-I 21 W/m 2,6 km/h (1 Bft)
03.05.2014 06:52 4,2 C 3,3 C 89 % 1024,3 hPa 0,0 l/m 0 min 0 min 0,0 UV-I 21 W/m 0,0 km/h (0 Bft)
03.05.2014 06:54 4,2 C 3,3 C 89 % 1024,3 hPa 0,0 l/m 0 min 0 min 0,0 UV-I 23 W/m 0,0 km/h (0 Bft)
03.05.2014 06:56 4,2 C 3,3 C 89 % 1024,3 hPa 0,0 l/m 0 min 0 min 0,0 UV-I 23 W/m 0,0 km/h (0 Bft)
03.05.2014 06:58 4,2 C 3,3 C 89 % 1024,3 hPa 0,0 l/m 0 min 0 min 0,0 UV-I 25 W/m 0,0 km/h (0 Bft)
03.05.2014 07:00 4,3 C 3,3 C 89 % 1024,3 hPa 0,0 l/m 0 min 0 min 0,0 UV-I 25 W/m 0,0 km/h (0 Bft)
03.05.2014 07:02 4,3 C 3,3 C 89 % 1024,4 hPa 0,0 l/m 0 min 0 min 0,0 UV-I 25 W/m 2,6 km/h (1 Bft)
03.05.2014 07:06 4,3 C 3,3 C 89 % 1024,3 hPa 0,0 l/m 0 min 0 min 0,0 UV-I 26 W/m 7,7 km/h (2 Bft)
03.05.2014 07:08 4,4 C 3,3 C 89 % 1024,4 hPa 0,0 l/m 0 min 0 min 0,0 UV-I 26 W/m 7,7 km/h (2 Bft)
03.05.2014 07:10 4,4 C 3,3 C 89 % 1024,3 hPa 0,0 l/m 0 min 0 min 0,0 UV-I 28 W/m 2,6 km/h (1 Bft)
03.05.2014 07:12 4,4 C 3,9 C 88 % 1024,4 hPa 0,0 l/m 0 min 0 min 0,0 UV-I 28 W/m 2,6 km/h (1 Bft)
03.05.2014 07:14 4,5 C 3,9 C 89 % 1024,4 hPa 0,0 l/m 0 min 0 min 0,0 UV-I 28 W/m 2,6 km/h (1 Bft)
03.05.2014 07:16 4,6 C 3,9 C 88 % 1024,5 hPa 0,0 l/m 0 min 0 min 0,0 UV-I 30 W/m 10,3 km/h (2 Bft)
03.05.2014 07:18 4,6 C 3,9 C 88 % 1024,5 hPa 0,0 l/m 0 min 0 min 0,0 UV-I 30 W/m 7,7 km/h (2 Bft)
03.05.2014 07:20 4,7 C 3,9 C 88 % 1024,5 hPa 0,0 l/m 0 min 0 min 0,0 UV-I 30 W/m 7,7 km/h (2 Bft)
03.05.2014 07:22 4,7 C 3,9 C 88 % 1024,6 hPa 0,0 l/m 0 min 0 min 0,0 UV-I 32 W/m 7,7 km/h (2 Bft)
03.05.2014 07:24 4,7 C 3,9 C 88 % 1024,6 hPa 0,0 l/m 0 min 0 min 0,0 UV-I 32 W/m 7,7 km/h (2 Bft)
03.05.2014 07:26 4,8 C 3,9 C 88 % 1024,6 hPa 0,0 l/m 0 min 0 min 0,0 UV-I 33 W/m 7,7 km/h (2 Bft)
03.05.2014 07:28 4,8 C 3,9 C 88 % 1024,5 hPa 0,0 l/m 0 min 0 min 0,0 UV-I 33 W/m 12,9 km/h (3 Bft)
03.05.2014 07:30 4,8 C 3,9 C 88 % 1024,6 hPa 0,0 l/m 0 min 0 min 0,0 UV-I 33 W/m 15,4 km/h (3 Bft)
03.05.2014 07:32 4,9 C 3,9 C 87 % 1024,6 hPa 0,0 l/m 0 min 0 min 0,0 UV-I 33 W/m 12,9 km/h (3 Bft)
03.05.2014 07:34 4,9 C 3,9 C 87 % 1024,6 hPa 0,0 l/m 0 min 0 min 0,0 UV-I 33 W/m 2,6 km/h (1 Bft)
03.05.2014 07:36 4,9 C 3,9 C 87 % 1024,6 hPa 0,0 l/m 0 min 0 min 0,0 UV-I 35 W/m 0,0 km/h (0 Bft)
03.05.2014 07:38 5,0 C 3,9 C 87 % 1024,5 hPa 0,0 l/m 0 min 0 min 0,0 UV-I 35 W/m 7,7 km/h (2 Bft)
03.05.2014 07:40 5,1 C 4,4 C 87 % 1024,6 hPa 0,0 l/m 0 min 0 min 0,0 UV-I 35 W/m 10,3 km/h (2 Bft)
03.05.2014 07:42 5,1 C 4,4 C 87 % 1024,6 hPa 0,0 l/m 0 min 0 min 0,0 UV-I 35 W/m 7,7 km/h (2 Bft)
03.05.2014 07:44 5,1 C 4,4 C 87 % 1024,6 hPa 0,0 l/m 0 min 0 min 0,0 UV-I 37 W/m 0,0 km/h (0 Bft)
03.05.2014 07:46 5,2 C 4,4 C 87 % 1024,6 hPa 0,0 l/m 0 min 0 min 0,0 UV-I 37 W/m 12,9 km/h (3 Bft)
03.05.2014 07:48 5,2 C 4,4 C 86 % 1024,6 hPa 0,0 l/m 0 min 0 min 0,0 UV-I 37 W/m 15,4 km/h (3 Bft)
03.05.2014 07:50 5,2 C 4,4 C 86 % 1024,6 hPa 0,0 l/m 0 min 0 min 0,0 UV-I 37 W/m 15,4 km/h (3 Bft)
03.05.2014 07:52 5,3 C 4,4 C 86 % 1024,7 hPa 0,0 l/m 0 min 0 min 0,0 UV-I 39 W/m 10,3 km/h (2 Bft)
03.05.2014 07:54 5,3 C 4,4 C 86 % 1024,7 hPa 0,0 l/m 0 min 0 min 0,0 UV-I 39 W/m 10,3 km/h (2 Bft)
03.05.2014 07:56 5,4 C 4,4 C 85 % 1024,7 hPa 0,0 l/m 0 min 0 min 0,0 UV-I 39 W/m 15,4 km/h (3 Bft)
03.05.2014 07:58 5,4 C 4,4 C 85 % 1024,7 hPa 0,0 l/m 0 min 0 min 0,0 UV-I 39 W/m 5,1 km/h (1 Bft)
03.05.2014 08:00 5,5 C 4,4 C 85 % 1024,8 hPa 0,0 l/m 0 min 0 min 0,0 UV-I 40 W/m 12,9 km/h (3 Bft)
03.05.2014 08:02 5,5 C 4,4 C 85 % 1024,8 hPa 0,0 l/m 0 min 0 min 0,0 UV-I 40 W/m 7,7 km/h (2 Bft)
03.05.2014 08:06 5,6 C 4,4 C 84 % 1024,8 hPa 0,0 l/m 0 min 0 min 0,0 UV-I 40 W/m 12,9 km/h (3 Bft)
03.05.2014 08:08 5,7 C 4,4 C 84 % 1024,8 hPa 0,0 l/m 0 min 0 min 0,0 UV-I 40 W/m 0,0 km/h (0 Bft)
03.05.2014 08:10 5,7 C 5,0 C 84 % 1024,9 hPa 0,0 l/m 0 min 0 min 0,0 UV-I 42 W/m 7,7 km/h (2 Bft)
03.05.2014 08:12 5,8 C 5,0 C 84 % 1024,9 hPa 0,0 l/m 0 min 0 min 0,0 UV-I 42 W/m 7,7 km/h (2 Bft)
03.05.2014 08:14 5,9 C 5,0 C 84 % 1024,9 hPa 0,0 l/m 0 min 0 min 0,0 UV-I 74 W/m 5,1 km/h (1 Bft)
03.05.2014 08:16 5,9 C 5,0 C 83 % 1024,9 hPa 0,0 l/m 2 min 0 min 0,0 UV-I 251 W/m 15,4 km/h (3 Bft)
03.05.2014 08:18 6,0 C 5,0 C 83 % 1024,9 hPa 0,0 l/m 2 min 0 min 0,0 UV-I 271 W/m 2,6 km/h (1 Bft)
03.05.2014 08:20 6,1 C 5,0 C 83 % 1024,9 hPa 0,0 l/m 2 min 0 min 0,0 UV-I 274 W/m 2,6 km/h (1 Bft)
03.05.2014 08:22 6,2 C 5,0 C 83 % 1024,9 hPa 0,0 l/m 2 min 0 min 0,0 UV-I 279 W/m 0,0 km/h (0 Bft)
03.05.2014 08:24 6,3 C 5,0 C 82 % 1024,9 hPa 0,0 l/m 2 min 0 min 0,0 UV-I 287 W/m 5,1 km/h (1 Bft)
03.05.2014 08:26 6,3 C 5,0 C 82 % 1025,0 hPa 0,0 l/m 2 min 0 min 0,0 UV-I 290 W/m 10,3 km/h (2 Bft)
03.05.2014 08:28 6,4 C 5,6 C 82 % 1025,0 hPa 0,0 l/m 2 min 0 min 0,0 UV-I 295 W/m 2,6 km/h (1 Bft)
03.05.2014 08:30 6,5 C 5,6 C 82 % 1025,0 hPa 0,0 l/m 2 min 0 min 0,0 UV-I 301 W/m 0,0 km/h (0 Bft)
03.05.2014 08:32 6,6 C 5,6 C 81 % 1024,9 hPa 0,0 l/m 2 min 0 min 0,0 UV-I 302 W/m 5,1 km/h (1 Bft)
03.05.2014 08:34 6,7 C 5,6 C 81 % 1024,9 hPa 0,0 l/m 2 min 0 min 0,0 UV-I 311 W/m 5,1 km/h (1 Bft)
03.05.2014 08:36 6,8 C 5,6 C 81 % 1024,9 hPa 0,0 l/m 2 min 0 min 0,0 UV-I 316 W/m 0,0 km/h (0 Bft)
03.05.2014 08:38 7,0 C 6,1 C 81 % 1024,9 hPa 0,0 l/m 2 min 0 min 0,0 UV-I 322 W/m 7,7 km/h (2 Bft)
03.05.2014 08:40 7,0 C 5,6 C 80 % 1024,9 hPa 0,0 l/m 2 min 0 min 0,0 UV-I 325 W/m 10,3 km/h (2 Bft)
03.05.2014 08:42 7,1 C 6,1 C 79 % 1024,9 hPa 0,0 l/m 2 min 0 min 0,0 UV-I 334 W/m 7,7 km/h (2 Bft)
03.05.2014 08:44 7,1 C 6,1 C 79 % 1025,0 hPa 0,0 l/m 2 min 0 min 0,0 UV-I 339 W/m 15,4 km/h (3 Bft)
03.05.2014 08:46 7,1 C 6,1 C 78 % 1024,9 hPa 0,0 l/m 2 min 0 min 0,0 UV-I 343 W/m 10,3 km/h (2 Bft)
03.05.2014 08:48 7,2 C 6,1 C 78 % 1024,9 hPa 0,0 l/m 2 min 0 min 0,0 UV-I 350 W/m 2,6 km/h (1 Bft)
03.05.2014 08:50 7,2 C 6,1 C 78 % 1024,9 hPa 0,0 l/m 2 min 0 min 0,0 UV-I 353 W/m 18,0 km/h (3 Bft)
03.05.2014 08:52 7,2 C 6,1 C 78 % 1024,9 hPa 0,0 l/m 2 min 0 min 0,0 UV-I 359 W/m 10,3 km/h (2 Bft)
03.05.2014 08:54 7,3 C 6,1 C 77 % 1024,9 hPa 0,0 l/m 2 min 0 min 0,0 UV-I 366 W/m 10,3 km/h (2 Bft)
03.05.2014 08:56 7,4 C 6,1 C 77 % 1025,0 hPa 0,0 l/m 2 min 0 min 0,0 UV-I 369 W/m 10,3 km/h (2 Bft)
03.05.2014 08:58 7,4 C 6,7 C 77 % 1025,0 hPa 0,0 l/m 2 min 0 min 0,0 UV-I 374 W/m 10,3 km/h (2 Bft)
03.05.2014 09:00 7,5 C 6,7 C 76 % 1025,0 hPa 0,0 l/m 2 min 0 min 0,0 UV-I 378 W/m 12,9 km/h (3 Bft)
03.05.2014 09:02 7,7 C 6,7 C 77 % 1025,1 hPa 0,0 l/m 2 min 0 min 0,0 UV-I 387 W/m 7,7 km/h (2 Bft)
03.05.2014 09:06 7,9 C 6,7 C 76 % 1025,0 hPa 0,0 l/m 2 min 0 min 0,0 UV-I 396 W/m 15,4 km/h (3 Bft)
03.05.2014 09:08 7,9 C 6,7 C 75 % 1025,0 hPa 0,0 l/m 2 min 0 min 0,0 UV-I 401 W/m 12,9 km/h (3 Bft)
03.05.2014 09:10 8,1 C 7,2 C 75 % 1025,0 hPa 0,0 l/m 2 min 0 min 0,0 UV-I 403 W/m 5,1 km/h (1 Bft)
03.05.2014 09:12 8,3 C 7,2 C 75 % 1025,1 hPa 0,0 l/m 2 min 0 min 0,0 UV-I 408 W/m 2,6 km/h (1 Bft)
03.05.2014 09:14 8,6 C 7,2 C 76 % 1025,0 hPa 0,0 l/m 2 min 0 min 0,0 UV-I 413 W/m 2,6 km/h (1 Bft)
03.05.2014 09:16 8,7 C 7,8 C 75 % 1025,1 hPa 0,0 l/m 2 min 0 min 0,0 UV-I 418 W/m 5,1 km/h (1 Bft)
03.05.2014 09:18 8,7 C 7,2 C 73 % 1025,1 hPa 0,0 l/m 2 min 0 min 0,0 UV-I 425 W/m 15,4 km/h (3 Bft)
03.05.2014 09:20 8,6 C 7,2 C 72 % 1025,1 hPa 0,0 l/m 2 min 0 min 0,0 UV-I 429 W/m 15,4 km/h (3 Bft)
03.05.2014 09:22 8,7 C 7,8 C 73 % 1025,2 hPa 0,0 l/m 2 min 0 min 0,0 UV-I 432 W/m 12,9 km/h (3 Bft)
03.05.2014 09:24 8,7 C 7,8 C 72 % 1025,2 hPa 0,0 l/m 2 min 0 min 0,5 UV-I 439 W/m 12,9 km/h (3 Bft)
03.05.2014 09:26 8,7 C 7,8 C 72 % 1025,2 hPa 0,0 l/m 2 min 0 min 0,5 UV-I 445 W/m 12,9 km/h (3 Bft)
03.05.2014 09:28 8,7 C 8,3 C 73 % 1025,2 hPa 0,0 l/m 2 min 0 min 0,5 UV-I 450 W/m 7,7 km/h (2 Bft)
03.05.2014 09:30 8,9 C 8,9 C 74 % 1025,1 hPa 0,0 l/m 2 min 0 min 0,6 UV-I 454 W/m 7,7 km/h (2 Bft)
03.05.2014 09:32 9,0 C 8,9 C 72 % 1025,2 hPa 0,0 l/m 2 min 0 min 0,6 UV-I 459 W/m 10,3 km/h (2 Bft)
03.05.2014 09:34 8,9 C 8,9 C 71 % 1025,2 hPa 0,0 l/m 2 min 0 min 0,6 UV-I 466 W/m 12,9 km/h (3 Bft)
03.05.2014 09:36 8,9 C 8,9 C 71 % 1025,2 hPa 0,0 l/m 2 min 0 min 0,7 UV-I 469 W/m 15,4 km/h (3 Bft)
03.05.2014 09:38 9,1 C 10,0 C 70 % 1025,2 hPa 0,0 l/m 2 min 0 min 0,7 UV-I 473 W/m 18,0 km/h (3 Bft)
03.05.2014 09:40 9,2 C 11,7 C 69 % 1025,2 hPa 0,0 l/m 2 min 0 min 0,7 UV-I 476 W/m 18,0 km/h (3 Bft)
03.05.2014 09:42 9,2 C 12,2 C 68 % 1025,1 hPa 0,0 l/m 2 min 0 min 0,7 UV-I 485 W/m 12,9 km/h (3 Bft)
03.05.2014 09:44 9,2 C 12,2 C 67 % 1025,2 hPa 0,0 l/m 2 min 0 min 0,8 UV-I 490 W/m 18,0 km/h (3 Bft)
03.05.2014 09:46 9,2 C 11,7 C 66 % 1025,2 hPa 0,0 l/m 2 min 0 min 0,8 UV-I 497 W/m 12,9 km/h (3 Bft)
03.05.2014 09:48 9,3 C 12,8 C 67 % 1025,1 hPa 0,0 l/m 2 min 0 min 0,8 UV-I 499 W/m 12,9 km/h (3 Bft)
03.05.2014 09:50 9,3 C 12,8 C 66 % 1025,1 hPa 0,0 l/m 2 min 0 min 0,9 UV-I 503 W/m 20,6 km/h (4 Bft)
03.05.2014 09:52 9,3 C 13,3 C 66 % 1025,1 hPa 0,0 l/m 2 min 0 min 0,9 UV-I 508 W/m 15,4 km/h (3 Bft)
03.05.2014 09:54 9,5 C 13,3 C 67 % 1025,1 hPa 0,0 l/m 2 min 0 min 0,9 UV-I 515 W/m 12,9 km/h (3 Bft)
03.05.2014 09:56 9,5 C 13,3 C 65 % 1025,1 hPa 0,0 l/m 2 min 0 min 0,9 UV-I 517 W/m 15,4 km/h (3 Bft)
03.05.2014 09:58 9,6 C 13,3 C 65 % 1025,0 hPa 0,0 l/m 2 min 0 min 1,0 UV-I 522 W/m 10,3 km/h (2 Bft)
03.05.2014 10:00 9,8 C 13,9 C 66 % 1025,1 hPa 0,0 l/m 2 min 0 min 1,0 UV-I 529 W/m 7,7 km/h (2 Bft)
03.05.2014 10:02 9,9 C 13,3 C 65 % 1025,1 hPa 0,0 l/m 2 min 0 min 1,0 UV-I 531 W/m 15,4 km/h (3 Bft)
03.05.2014 10:06 10,2 C 13,9 C 63 % 1025,1 hPa 0,0 l/m 2 min 0 min 1,1 UV-I 536 W/m 12,9 km/h (3 Bft)
03.05.2014 10:08 10,4 C 13,9 C 63 % 1025,1 hPa 0,0 l/m 2 min 0 min 1,1 UV-I 543 W/m 18,0 km/h (3 Bft)
03.05.2014 10:10 10,3 C 13,3 C 62 % 1025,0 hPa 0,0 l/m 2 min 0 min 1,1 UV-I 547 W/m 10,3 km/h (2 Bft)
03.05.2014 10:12 10,3 C 12,8 C 63 % 1025,0 hPa 0,0 l/m 2 min 0 min 1,2 UV-I 554 W/m 10,3 km/h (2 Bft)
03.05.2014 10:14 10,3 C 13,3 C 62 % 1025,0 hPa 0,0 l/m 2 min 0 min 1,2 UV-I 557 W/m 18,0 km/h (3 Bft)
03.05.2014 10:16 10,3 C 13,9 C 63 % 1025,0 hPa 0,0 l/m 2 min 0 min 1,2 UV-I 563 W/m 12,9 km/h (3 Bft)
03.05.2014 10:18 10,3 C 12,8 C 61 % 1025,0 hPa 0,0 l/m 2 min 0 min 1,3 UV-I 568 W/m 23,2 km/h (4 Bft)
03.05.2014 10:20 10,3 C 12,8 C 60 % 1025,0 hPa 0,0 l/m 2 min 0 min 1,3 UV-I 571 W/m 12,9 km/h (3 Bft)
03.05.2014 10:22 10,3 C 12,8 C 60 % 1025,0 hPa 0,0 l/m 2 min 0 min 1,3 UV-I 578 W/m 12,9 km/h (3 Bft)
03.05.2014 10:24 10,4 C 13,3 C 62 % 1025,1 hPa 0,0 l/m 2 min 0 min 1,4 UV-I 580 W/m 7,7 km/h (2 Bft)
03.05.2014 10:26 10,5 C 12,2 C 61 % 1025,1 hPa 0,0 l/m 2 min 0 min 1,4 UV-I 580 W/m 12,9 km/h (3 Bft)
03.05.2014 10:28 10,6 C 11,7 C 61 % 1025,1 hPa 0,0 l/m 2 min 0 min 1,4 UV-I 587 W/m 15,4 km/h (3 Bft)
03.05.2014 10:30 10,6 C 11,1 C 59 % 1025,1 hPa 0,0 l/m 2 min 0 min 1,4 UV-I 592 W/m 25,7 km/h (4 Bft)
03.05.2014 10:32 10,5 C 10,6 C 59 % 1025,1 hPa 0,0 l/m 2 min 0 min 1,5 UV-I 594 W/m 23,2 km/h (4 Bft)
03.05.2014 10:34 10,7 C 10,6 C 59 % 1025,2 hPa 0,0 l/m 2 min 0 min 1,5 UV-I 601 W/m 20,6 km/h (4 Bft)
03.05.2014 10:36 10,8 C 11,1 C 58 % 1025,2 hPa 0,0 l/m 2 min 0 min 1,5 UV-I 606 W/m 10,3 km/h (2 Bft)
03.05.2014 10:38 11,1 C 11,7 C 58 % 1025,2 hPa 0,0 l/m 2 min 0 min 1,6 UV-I 610 W/m 15,4 km/h (3 Bft)
03.05.2014 10:40 11,3 C 11,7 C 58 % 1025,1 hPa 0,0 l/m 2 min 0 min 1,6 UV-I 613 W/m 2,6 km/h (1 Bft)
03.05.2014 10:42 11,5 C 12,2 C 57 % 1025,1 hPa 0,0 l/m 2 min 0 min 1,6 UV-I 621 W/m 5,1 km/h (1 Bft)
03.05.2014 10:44 11,5 C 12,2 C 56 % 1025,1 hPa 0,0 l/m 2 min 0 min 1,7 UV-I 622 W/m 18,0 km/h (3 Bft)
03.05.2014 10:46 11,3 C 12,8 C 54 % 1025,1 hPa 0,0 l/m 2 min 0 min 1,7 UV-I 628 W/m 23,2 km/h (4 Bft)
03.05.2014 10:48 11,3 C 12,8 C 55 % 1025,2 hPa 0,0 l/m 2 min 0 min 1,7 UV-I 631 W/m 18,0 km/h (3 Bft)
03.05.2014 10:50 11,3 C 12,8 C 56 % 1025,2 hPa 0,0 l/m 2 min 0 min 1,7 UV-I 635 W/m 12,9 km/h (3 Bft)
03.05.2014 10:52 11,4 C 12,8 C 56 % 1025,2 hPa 0,0 l/m 2 min 0 min 1,8 UV-I 640 W/m 15,4 km/h (3 Bft)
03.05.2014 10:54 11,6 C 12,8 C 57 % 1025,2 hPa 0,0 l/m 2 min 0 min 1,8 UV-I 645 W/m 10,3 km/h (2 Bft)
03.05.2014 10:56 11,7 C 13,3 C 57 % 1025,3 hPa 0,0 l/m 2 min 0 min 1,8 UV-I 643 W/m 7,7 km/h (2 Bft)
03.05.2014 10:58 11,8 C 13,9 C 54 % 1025,4 hPa 0,0 l/m 2 min 0 min 1,9 UV-I 649 W/m 10,3 km/h (2 Bft)
03.05.2014 11:00 11,9 C 13,9 C 55 % 1025,3 hPa 0,0 l/m 2 min 0 min 1,9 UV-I 654 W/m 10,3 km/h (2 Bft)
03.05.2014 11:02 11,8 C 12,8 C 53 % 1025,4 hPa 0,0 l/m 2 min 0 min 1,9 UV-I 661 W/m 23,2 km/h (4 Bft)
03.05.2014 11:06 11,6 C 11,7 C 56 % 1025,3 hPa 0,0 l/m 2 min 0 min 2,0 UV-I 664 W/m 18,0 km/h (3 Bft)
03.05.2014 11:08 11,5 C 11,7 C 55 % 1025,2 hPa 0,0 l/m 2 min 0 min 2,0 UV-I 664 W/m 25,7 km/h (4 Bft)
03.05.2014 11:10 11,3 C 11,1 C 56 % 1025,3 hPa 0,0 l/m 2 min 0 min 2,0 UV-I 668 W/m 28,3 km/h (4 Bft)
03.05.2014 11:12 11,2 C 11,1 C 58 % 1025,3 hPa 0,0 l/m 2 min 0 min 2,1 UV-I 675 W/m 28,3 km/h (4 Bft)
03.05.2014 11:14 11,4 C 11,1 C 59 % 1025,3 hPa 0,0 l/m 2 min 0 min 2,1 UV-I 677 W/m 10,3 km/h (2 Bft)
03.05.2014 11:16 11,7 C 11,7 C 57 % 1025,3 hPa 0,0 l/m 2 min 0 min 2,1 UV-I 679 W/m 12,9 km/h (3 Bft)
03.05.2014 11:18 11,9 C 11,7 C 58 % 1025,2 hPa 0,0 l/m 2 min 0 min 2,2 UV-I 682 W/m 5,1 km/h (1 Bft)
03.05.2014 11:20 12,2 C 12,2 C 56 % 1025,3 hPa 0,0 l/m 2 min 0 min 2,2 UV-I 687 W/m 10,3 km/h (2 Bft)
03.05.2014 11:22 12,1 C 12,2 C 55 % 1025,3 hPa 0,0 l/m 2 min 0 min 2,2 UV-I 689 W/m 18,0 km/h (3 Bft)
03.05.2014 11:24 11,8 C 12,2 C 55 % 1025,2 hPa 0,0 l/m 2 min 0 min 2,2 UV-I 691 W/m 20,6 km/h (4 Bft)
03.05.2014 11:26 11,7 C 12,2 C 55 % 1025,2 hPa 0,0 l/m 2 min 0 min 2,2 UV-I 698 W/m 10,3 km/h (2 Bft)
03.05.2014 11:28 11,7 C 12,8 C 57 % 1025,2 hPa 0,0 l/m 2 min 0 min 2,3 UV-I 698 W/m 25,7 km/h (4 Bft)
03.05.2014 11:30 11,7 C 12,8 C 55 % 1025,2 hPa 0,0 l/m 2 min 0 min 2,3 UV-I 701 W/m 20,6 km/h (4 Bft)
03.05.2014 11:32 11,7 C 12,8 C 56 % 1025,2 hPa 0,0 l/m 2 min 0 min 2,3 UV-I 696 W/m 15,4 km/h (3 Bft)
03.05.2014 11:34 11,8 C 12,8 C 57 % 1025,2 hPa 0,0 l/m 2 min 0 min 2,4 UV-I 710 W/m 15,4 km/h (3 Bft)
03.05.2014 11:36 12,0 C 12,8 C 58 % 1025,2 hPa 0,0 l/m 2 min 0 min 2,4 UV-I 717 W/m 10,3 km/h (2 Bft)
03.05.2014 11:38 12,4 C 13,3 C 56 % 1025,1 hPa 0,0 l/m 2 min 0 min 2,4 UV-I 712 W/m 7,7 km/h (2 Bft)
03.05.2014 11:40 12,4 C 13,3 C 54 % 1025,1 hPa 0,0 l/m 2 min 0 min 2,4 UV-I 719 W/m 18,0 km/h (3 Bft)
03.05.2014 11:42 12,2 C 12,8 C 56 % 1025,1 hPa 0,0 l/m 2 min 0 min 2,5 UV-I 722 W/m 20,6 km/h (4 Bft)
03.05.2014 11:44 12,3 C 12,8 C 56 % 1025,1 hPa 0,0 l/m 2 min 0 min 2,5 UV-I 733 W/m 23,2 km/h (4 Bft)
03.05.2014 11:46 12,1 C 12,2 C 54 % 1025,1 hPa 0,0 l/m 2 min 0 min 2,6 UV-I 742 W/m 25,7 km/h (4 Bft)
03.05.2014 11:48 11,8 C 12,2 C 54 % 1025,1 hPa 0,0 l/m 2 min 0 min 2,5 UV-I 733 W/m 18,0 km/h (3 Bft)
03.05.2014 11:50 11,9 C 12,8 C 57 % 1025,1 hPa 0,0 l/m 2 min 0 min 2,6 UV-I 765 W/m 7,7 km/h (2 Bft)
03.05.2014 11:52 12,1 C 13,3 C 58 % 1025,1 hPa 0,0 l/m 2 min 0 min 2,7 UV-I 784 W/m 15,4 km/h (3 Bft)
03.05.2014 11:54 12,4 C 13,9 C 57 % 1025,1 hPa 0,0 l/m 2 min 0 min 2,7 UV-I 770 W/m 12,9 km/h (3 Bft)
03.05.2014 11:56 12,5 C 12,8 C 56 % 1025,1 hPa 0,0 l/m 2 min 0 min 2,7 UV-I 765 W/m 18,0 km/h (3 Bft)
03.05.2014 11:58 12,4 C 12,8 C 56 % 1025,1 hPa 0,0 l/m 2 min 0 min 2,7 UV-I 773 W/m 15,4 km/h (3 Bft)
03.05.2014 12:00 12,4 C 13,3 C 55 % 1025,1 hPa 0,0 l/m 2 min 0 min 2,7 UV-I 791 W/m 20,6 km/h (4 Bft)
03.05.2014 12:02 12,3 C 13,9 C 59 % 1025,1 hPa 0,0 l/m 2 min 0 min 2,8 UV-I 805 W/m 12,9 km/h (3 Bft)
03.05.2014 12:06 13,1 C 14,4 C 55 % 1025,1 hPa 0,0 l/m 2 min 0 min 2,9 UV-I 791 W/m 10,3 km/h (2 Bft)
03.05.2014 12:08 13,3 C 15,0 C 58 % 1025,1 hPa 0,0 l/m 2 min 0 min 2,9 UV-I 800 W/m 15,4 km/h (3 Bft)
03.05.2014 12:10 13,4 C 15,0 C 54 % 1025,1 hPa 0,0 l/m 2 min 0 min 3,0 UV-I 824 W/m 10,3 km/h (2 Bft)
03.05.2014 12:12 13,2 C 15,0 C 54 % 1025,1 hPa 0,0 l/m 2 min 0 min 2,8 UV-I 807 W/m 10,3 km/h (2 Bft)
03.05.2014 12:14 13,1 C 14,4 C 55 % 1025,1 hPa 0,0 l/m 2 min 0 min 3,0 UV-I 821 W/m 12,9 km/h (3 Bft)
03.05.2014 12:16 13,0 C 14,4 C 56 % 1025,1 hPa 0,0 l/m 2 min 0 min 3,0 UV-I 831 W/m 15,4 km/h (3 Bft)
03.05.2014 12:18 12,9 C 13,9 C 56 % 1025,1 hPa 0,0 l/m 2 min 0 min 2,4 UV-I 835 W/m 12,9 km/h (3 Bft)
03.05.2014 12:20 12,8 C 13,3 C 56 % 1025,2 hPa 0,0 l/m 2 min 0 min 1,0 UV-I 835 W/m 10,3 km/h (2 Bft)
03.05.2014 12:22 12,6 C 12,8 C 56 % 1025,2 hPa 0,0 l/m 0 min 0 min 1,1 UV-I 193 W/m 12,9 km/h (3 Bft)
03.05.2014 12:24 12,2 C 12,8 C 57 % 1025,2 hPa 0,0 l/m 2 min 0 min 1,7 UV-I 731 W/m 15,4 km/h (3 Bft)
03.05.2014 12:26 12,1 C 12,2 C 57 % 1025,1 hPa 0,0 l/m 0 min 0 min 1,1 UV-I 174 W/m 18,0 km/h (3 Bft)
03.05.2014 12:28 11,8 C 11,7 C 58 % 1025,1 hPa 0,0 l/m 0 min 0 min 1,2 UV-I 171 W/m 20,6 km/h (4 Bft)
03.05.2014 12:30 11,7 C 11,7 C 58 % 1025,1 hPa 0,0 l/m 0 min 0 min 1,3 UV-I 171 W/m 15,4 km/h (3 Bft)
03.05.2014 12:32 11,8 C 13,3 C 59 % 1025,0 hPa 0,0 l/m 2 min 0 min 3,1 UV-I 882 W/m 2,6 km/h (1 Bft)
03.05.2014 12:34 12,2 C 12,8 C 57 % 1025,1 hPa 0,0 l/m 0 min 0 min 1,4 UV-I 262 W/m 10,3 km/h (2 Bft)
03.05.2014 12:36 12,2 C 13,3 C 56 % 1025,1 hPa 0,0 l/m 0 min 0 min 2,9 UV-I 262 W/m 28,3 km/h (4 Bft)
03.05.2014 12:38 12,2 C 13,9 C 57 % 1025,1 hPa 0,0 l/m 2 min 0 min 3,2 UV-I 874 W/m 23,2 km/h (4 Bft)
03.05.2014 12:40 12,3 C 13,9 C 57 % 1025,0 hPa 0,0 l/m 2 min 0 min 3,3 UV-I 888 W/m 23,2 km/h (4 Bft)
03.05.2014 12:42 12,5 C 14,4 C 57 % 1025,0 hPa 0,0 l/m 2 min 0 min 3,3 UV-I 937 W/m 18,0 km/h (3 Bft)
03.05.2014 12:44 12,5 C 13,3 C 55 % 1025,0 hPa 0,0 l/m 2 min 0 min 2,3 UV-I 937 W/m 28,3 km/h (4 Bft)
03.05.2014 12:46 12,4 C 12,8 C 57 % 1025,0 hPa 0,0 l/m 2 min 0 min 1,3 UV-I 937 W/m 12,9 km/h (3 Bft)
03.05.2014 12:48 12,3 C 12,8 C 57 % 1025,0 hPa 0,0 l/m 2 min 0 min 2,8 UV-I 951 W/m 20,6 km/h (4 Bft)
03.05.2014 12:50 12,2 C 12,2 C 56 % 1025,0 hPa 0,0 l/m 2 min 0 min 2,6 UV-I 951 W/m 25,7 km/h (4 Bft)
03.05.2014 12:52 12,3 C 12,8 C 57 % 1025,0 hPa 0,0 l/m 2 min 0 min 2,5 UV-I 842 W/m 15,4 km/h (3 Bft)
03.05.2014 12:54 12,4 C 12,8 C 57 % 1024,9 hPa 0,0 l/m 2 min 0 min 2,1 UV-I 923 W/m 18,0 km/h (3 Bft)
03.05.2014 12:56 12,7 C 13,3 C 56 % 1024,9 hPa 0,0 l/m 2 min 0 min 1,7 UV-I 958 W/m 18,0 km/h (3 Bft)
03.05.2014 12:58 12,7 C 12,8 C 56 % 1025,0 hPa 0,0 l/m 0 min 0 min 1,4 UV-I 227 W/m 25,7 km/h (4 Bft)
03.05.2014 13:00 12,4 C 12,2 C 55 % 1024,9 hPa 0,0 l/m 0 min 0 min 1,4 UV-I 204 W/m 23,2 km/h (4 Bft)
03.05.2014 13:02 12,2 C 11,7 C 55 % 1024,9 hPa 0,0 l/m 0 min 0 min 1,4 UV-I 204 W/m 18,0 km/h (3 Bft)
03.05.2014 13:06 12,5 C 12,8 C 57 % 1024,9 hPa 0,0 l/m 2 min 0 min 1,5 UV-I 882 W/m 18,0 km/h (3 Bft)
03.05.2014 13:08 12,7 C 12,8 C 56 % 1024,9 hPa 0,0 l/m 2 min 0 min 1,5 UV-I 921 W/m 18,0 km/h (3 Bft)
03.05.2014 13:10 12,8 C 13,3 C 57 % 1024,9 hPa 0,0 l/m 2 min 0 min 1,4 UV-I 939 W/m 10,3 km/h (2 Bft)
03.05.2014 13:12 12,9 C 12,8 C 54 % 1024,9 hPa 0,0 l/m 2 min 0 min 1,2 UV-I 939 W/m 20,6 km/h (4 Bft)
03.05.2014 13:14 12,6 C 12,8 C 56 % 1024,8 hPa 0,0 l/m 0 min 0 min 1,3 UV-I 253 W/m 7,7 km/h (2 Bft)
03.05.2014 13:16 12,5 C 12,8 C 57 % 1024,9 hPa 0,0 l/m 0 min 0 min 1,5 UV-I 253 W/m 12,9 km/h (3 Bft)
03.05.2014 13:18 12,5 C 12,2 C 57 % 1024,9 hPa 0,0 l/m 0 min 0 min 1,5 UV-I 274 W/m 25,7 km/h (4 Bft)
03.05.2014 13:20 12,3 C 12,2 C 56 % 1024,9 hPa 0,0 l/m 0 min 0 min 1,7 UV-I 274 W/m 20,6 km/h (4 Bft)
03.05.2014 13:22 12,4 C 12,8 C 58 % 1024,9 hPa 0,0 l/m 0 min 0 min 1,6 UV-I 274 W/m 20,6 km/h (4 Bft)
03.05.2014 13:24 12,6 C 12,8 C 57 % 1024,8 hPa 0,0 l/m 0 min 0 min 1,5 UV-I 274 W/m 15,4 km/h (3 Bft)
03.05.2014 13:26 12,5 C 12,2 C 56 % 1024,8 hPa 0,0 l/m 0 min 0 min 1,4 UV-I 341 W/m 23,2 km/h (4 Bft)
03.05.2014 13:28 12,4 C 12,2 C 56 % 1024,8 hPa 0,0 l/m 0 min 0 min 1,6 UV-I 209 W/m 18,0 km/h (3 Bft)
03.05.2014 13:30 12,4 C 12,2 C 57 % 1024,8 hPa 0,0 l/m 0 min 0 min 1,7 UV-I 209 W/m 18,0 km/h (3 Bft)
03.05.2014 13:32 12,5 C 12,8 C 56 % 1024,9 hPa 0,0 l/m 2 min 0 min 1,8 UV-I 928 W/m 15,4 km/h (3 Bft)
03.05.2014 13:34 12,7 C 12,8 C 57 % 1024,8 hPa 0,0 l/m 2 min 0 min 1,8 UV-I 946 W/m 23,2 km/h (4 Bft)
03.05.2014 13:36 12,7 C 12,8 C 56 % 1024,8 hPa 0,0 l/m 0 min 0 min 1,5 UV-I 336 W/m 18,0 km/h (3 Bft)
03.05.2014 13:38 12,7 C 12,2 C 55 % 1024,8 hPa 0,0 l/m 0 min 0 min 1,3 UV-I 336 W/m 25,7 km/h (4 Bft)
03.05.2014 13:40 12,6 C 12,2 C 56 % 1024,8 hPa 0,0 l/m 0 min 0 min 1,3 UV-I 276 W/m 20,6 km/h (4 Bft)
03.05.2014 13:42 12,6 C 12,8 C 59 % 1024,8 hPa 0,0 l/m 2 min 0 min 2,2 UV-I 942 W/m 2,6 km/h (1 Bft)
03.05.2014 13:44 12,7 C 12,8 C 56 % 1024,8 hPa 0,0 l/m 0 min 0 min 1,4 UV-I 272 W/m 18,0 km/h (3 Bft)
03.05.2014 13:46 12,7 C 12,2 C 57 % 1024,8 hPa 0,0 l/m 0 min 0 min 1,7 UV-I 332 W/m 15,4 km/h (3 Bft)
03.05.2014 13:48 12,6 C 12,8 C 55 % 1024,8 hPa 0,0 l/m 0 min 0 min 1,3 UV-I 346 W/m 20,6 km/h (4 Bft)
03.05.2014 13:50 12,7 C 12,8 C 56 % 1024,8 hPa 0,0 l/m 0 min 0 min 2,4 UV-I 323 W/m 20,6 km/h (4 Bft)
03.05.2014 13:52 12,8 C 12,8 C 55 % 1024,8 hPa 0,0 l/m 0 min 0 min 0,9 UV-I 271 W/m 12,9 km/h (3 Bft)
03.05.2014 13:54 12,8 C 12,8 C 56 % 1024,8 hPa 0,0 l/m 0 min 0 min 0,9 UV-I 221 W/m 12,9 km/h (3 Bft)
03.05.2014 13:56 12,6 C 12,2 C 55 % 1024,8 hPa 0,0 l/m 0 min 0 min 1,1 UV-I 202 W/m 25,7 km/h (4 Bft)
03.05.2014 13:58 12,4 C 11,7 C 55 % 1024,8 hPa 0,0 l/m 0 min 0 min 1,3 UV-I 213 W/m 20,6 km/h (4 Bft)
03.05.2014 14:00 12,3 C 11,7 C 55 % 1024,9 hPa 0,0 l/m 0 min 0 min 3,3 UV-I 213 W/m 15,4 km/h (3 Bft)
03.05.2014 14:02 12,4 C 12,2 C 55 % 1024,8 hPa 0,0 l/m 2 min 0 min 1,4 UV-I 944 W/m 18,0 km/h (3 Bft)
03.05.2014 14:06 12,6 C 12,8 C 56 % 1024,8 hPa 0,0 l/m 0 min 0 min 3,2 UV-I 279 W/m 15,4 km/h (3 Bft)
03.05.2014 14:08 12,8 C 12,8 C 56 % 1024,7 hPa 0,0 l/m 0 min 0 min 1,6 UV-I 279 W/m 20,6 km/h (4 Bft)
03.05.2014 14:10 12,9 C 12,8 C 53 % 1024,8 hPa 0,0 l/m 0 min 0 min 1,3 UV-I 316 W/m 28,3 km/h (4 Bft)
03.05.2014 14:12 12,8 C 12,8 C 54 % 1024,8 hPa 0,0 l/m 0 min 0 min 0,9 UV-I 279 W/m 12,9 km/h (3 Bft)
03.05.2014 14:14 12,8 C 12,8 C 54 % 1024,8 hPa 0,0 l/m 0 min 0 min 0,6 UV-I 244 W/m 10,3 km/h (2 Bft)
03.05.2014 14:16 12,8 C 12,8 C 55 % 1024,8 hPa 0,0 l/m 0 min 0 min 0,5 UV-I 207 W/m 23,2 km/h (4 Bft)
03.05.2014 14:18 12,6 C 12,2 C 55 % 1024,8 hPa 0,0 l/m 0 min 0 min 0,5 UV-I 200 W/m 15,4 km/h (3 Bft)
03.05.2014 14:20 12,6 C 12,2 C 55 % 1024,8 hPa 0,0 l/m 0 min 0 min 0,5 UV-I 195 W/m 10,3 km/h (2 Bft)
03.05.2014 14:22 12,4 C 12,2 C 55 % 1024,8 hPa 0,0 l/m 0 min 0 min 0,6 UV-I 193 W/m 18,0 km/h (3 Bft)
03.05.2014 14:24 12,4 C 12,2 C 55 % 1024,8 hPa 0,0 l/m 0 min 0 min 0,9 UV-I 193 W/m 15,4 km/h (3 Bft)
03.05.2014 14:26 12,3 C 11,7 C 54 % 1024,8 hPa 0,0 l/m 0 min 0 min 1,0 UV-I 204 W/m 20,6 km/h (4 Bft)
03.05.2014 14:28 12,2 C 11,7 C 54 % 1024,8 hPa 0,0 l/m 0 min 0 min 1,3 UV-I 248 W/m 12,9 km/h (3 Bft)
03.05.2014 14:30 12,2 C 11,7 C 55 % 1024,8 hPa 0,0 l/m 0 min 0 min 1,6 UV-I 248 W/m 10,3 km/h (2 Bft)
03.05.2014 14:32 12,4 C 12,2 C 55 % 1024,8 hPa 0,0 l/m 0 min 0 min 3,1 UV-I 248 W/m 7,7 km/h (2 Bft)
03.05.2014 14:34 12,9 C 13,3 C 57 % 1024,7 hPa 0,0 l/m 0 min 0 min 2,8 UV-I 432 W/m 10,3 km/h (2 Bft)
03.05.2014 14:36 13,3 C 13,3 C 55 % 1024,8 hPa 0,0 l/m 2 min 0 min 2,5 UV-I 972 W/m 25,7 km/h (4 Bft)
03.05.2014 14:38 13,7 C 13,9 C 53 % 1024,6 hPa 0,0 l/m 2 min 0 min 2,1 UV-I 991 W/m 20,6 km/h (4 Bft)
03.05.2014 14:40 13,7 C 13,3 C 53 % 1024,7 hPa 0,0 l/m 0 min 0 min 0,8 UV-I 248 W/m 20,6 km/h (4 Bft)
03.05.2014 14:42 13,5 C 12,8 C 54 % 1024,7 hPa 0,0 l/m 0 min 0 min 0,8 UV-I 248 W/m 15,4 km/h (3 Bft)
03.05.2014 14:44 13,3 C 12,8 C 55 % 1024,7 hPa 0,0 l/m 0 min 0 min 1,0 UV-I 278 W/m 12,9 km/h (3 Bft)
03.05.2014 14:46 13,1 C 12,8 C 54 % 1024,7 hPa 0,0 l/m 2 min 0 min 2,6 UV-I 928 W/m 20,6 km/h (4 Bft)
03.05.2014 14:48 13,2 C 13,3 C 56 % 1024,8 hPa 0,0 l/m 2 min 0 min 2,8 UV-I 990 W/m 15,4 km/h (3 Bft)
03.05.2014 14:50 13,4 C 13,9 C 55 % 1024,6 hPa 0,0 l/m 0 min 0 min 1,4 UV-I 329 W/m 15,4 km/h (3 Bft)
03.05.2014 14:52 13,5 C 13,3 C 54 % 1024,6 hPa 0,0 l/m 0 min 0 min 1,1 UV-I 230 W/m 15,4 km/h (3 Bft)
03.05.2014 14:54 13,3 C 12,8 C 53 % 1024,6 hPa 0,0 l/m 0 min 0 min 1,2 UV-I 216 W/m 23,2 km/h (4 Bft)
03.05.2014 14:56 13,1 C 12,8 C 54 % 1024,6 hPa 0,0 l/m 0 min 0 min 2,9 UV-I 227 W/m 25,7 km/h (4 Bft)
03.05.2014 14:58 13,2 C 13,3 C 54 % 1024,6 hPa 0,0 l/m 2 min 0 min 3,0 UV-I 893 W/m 15,4 km/h (3 Bft)
03.05.2014 15:00 13,4 C 13,3 C 54 % 1024,6 hPa 0,0 l/m 2 min 0 min 2,9 UV-I 919 W/m 15,4 km/h (3 Bft)
03.05.2014 15:02 13,9 C 13,9 C 53 % 1024,5 hPa 0,0 l/m 2 min 0 min 2,4 UV-I 933 W/m 23,2 km/h (4 Bft)
03.05.2014 15:06 14,2 C 14,4 C 52 % 1024,5 hPa 0,0 l/m 2 min 0 min 1,3 UV-I 918 W/m 28,3 km/h (4 Bft)
03.05.2014 15:08 14,2 C 14,4 C 51 % 1024,5 hPa 0,0 l/m 0 min 0 min 1,1 UV-I 292 W/m 15,4 km/h (3 Bft)
03.05.2014 15:10 14,0 C 13,9 C 52 % 1024,4 hPa 0,0 l/m 0 min 0 min 1,0 UV-I 241 W/m 20,6 km/h (4 Bft)
03.05.2014 15:12 13,7 C 13,3 C 51 % 1024,5 hPa 0,0 l/m 0 min 0 min 1,0 UV-I 221 W/m 28,3 km/h (4 Bft)
03.05.2014 15:14 13,4 C 13,3 C 52 % 1024,6 hPa 0,0 l/m 0 min 0 min 1,1 UV-I 221 W/m 12,9 km/h (3 Bft)
03.05.2014 15:16 13,3 C 13,3 C 51 % 1024,5 hPa 0,0 l/m 2 min 0 min 2,5 UV-I 411 W/m 10,3 km/h (2 Bft)
03.05.2014 15:18 13,3 C 13,3 C 54 % 1024,5 hPa 0,0 l/m 2 min 0 min 2,6 UV-I 411 W/m 15,4 km/h (3 Bft)
03.05.2014 15:20 13,4 C 13,9 C 57 % 1024,4 hPa 0,0 l/m 2 min 0 min 2,6 UV-I 853 W/m 18,0 km/h (3 Bft)
03.05.2014 15:22 13,6 C 13,9 C 58 % 1024,4 hPa 0,0 l/m 2 min 0 min 2,6 UV-I 872 W/m 28,3 km/h (4 Bft)
03.05.2014 15:24 13,6 C 13,3 C 57 % 1024,4 hPa 0,0 l/m 2 min 0 min 1,9 UV-I 872 W/m 20,6 km/h (4 Bft)
03.05.2014 15:26 13,4 C 13,3 C 56 % 1024,4 hPa 0,0 l/m 2 min 0 min 2,7 UV-I 898 W/m 28,3 km/h (4 Bft)
03.05.2014 15:28 13,4 C 13,3 C 57 % 1024,4 hPa 0,0 l/m 2 min 0 min 1,1 UV-I 891 W/m 25,7 km/h (4 Bft)
03.05.2014 15:30 13,4 C 13,3 C 58 % 1024,4 hPa 0,0 l/m 0 min 0 min 1,0 UV-I 297 W/m 23,2 km/h (4 Bft)
03.05.2014 15:32 13,3 C 13,3 C 58 % 1024,4 hPa 0,0 l/m 0 min 0 min 0,9 UV-I 281 W/m 23,2 km/h (4 Bft)
03.05.2014 15:34 13,2 C 13,3 C 59 % 1024,4 hPa 0,0 l/m 0 min 0 min 0,7 UV-I 269 W/m 15,4 km/h (3 Bft)
03.05.2014 15:36 13,1 C 13,3 C 58 % 1024,4 hPa 0,0 l/m 0 min 0 min 0,6 UV-I 260 W/m 20,6 km/h (4 Bft)
03.05.2014 15:38 13,2 C 13,3 C 58 % 1024,4 hPa 0,0 l/m 0 min 0 min 0,5 UV-I 236 W/m 10,3 km/h (2 Bft)
03.05.2014 15:40 13,1 C 12,8 C 56 % 1024,4 hPa 0,0 l/m 0 min 0 min 0,0 UV-I 223 W/m 20,6 km/h (4 Bft)
03.05.2014 15:42 12,9 C 12,8 C 57 % 1024,4 hPa 0,0 l/m 0 min 0 min 0,0 UV-I 218 W/m 23,2 km/h (4 Bft)
03.05.2014 15:44 12,9 C 12,8 C 57 % 1024,3 hPa 0,0 l/m 0 min 0 min 0,0 UV-I 218 W/m 7,7 km/h (2 Bft)
03.05.2014 15:46 12,8 C 12,8 C 58 % 1024,4 hPa 0,0 l/m 0 min 0 min 0,0 UV-I 225 W/m 20,6 km/h (4 Bft)
03.05.2014 15:48 12,8 C 12,8 C 58 % 1024,4 hPa 0,0 l/m 0 min 0 min 0,0 UV-I 229 W/m 18,0 km/h (3 Bft)
03.05.2014 15:50 12,8 C 12,8 C 59 % 1024,4 hPa 0,0 l/m 0 min 0 min 0,0 UV-I 234 W/m 15,4 km/h (3 Bft)
03.05.2014 15:52 12,7 C 12,2 C 58 % 1024,4 hPa 0,0 l/m 0 min 0 min 0,5 UV-I 241 W/m 15,4 km/h (3 Bft)
03.05.2014 15:54 12,7 C 12,8 C 59 % 1024,3 hPa 0,0 l/m 0 min 0 min 0,6 UV-I 243 W/m 18,0 km/h (3 Bft)
03.05.2014 15:56 12,7 C 12,2 C 58 % 1024,3 hPa 0,0 l/m 0 min 0 min 0,6 UV-I 237 W/m 18,0 km/h (3 Bft)
03.05.2014 15:58 12,6 C 12,8 C 58 % 1024,3 hPa 0,0 l/m 0 min 0 min 0,7 UV-I 236 W/m 18,0 km/h (3 Bft)
03.05.2014 16:00 12,6 C 12,2 C 58 % 1024,3 hPa 0,0 l/m 0 min 0 min 0,7 UV-I 234 W/m 23,2 km/h (4 Bft)
03.05.2014 16:02 12,4 C 12,2 C 58 % 1024,4 hPa 0,0 l/m 0 min 0 min 0,8 UV-I 234 W/m 15,4 km/h (3 Bft)
03.05.2014 16:06 12,4 C 12,2 C 60 % 1024,4 hPa 0,0 l/m 0 min 0 min 1,9 UV-I 290 W/m 18,0 km/h (3 Bft)
03.05.2014 16:08 12,6 C 12,8 C 58 % 1024,3 hPa 0,0 l/m 2 min 0 min 1,4 UV-I 450 W/m 12,9 km/h (3 Bft)
03.05.2014 16:10 12,8 C 12,8 C 58 % 1024,3 hPa 0,0 l/m 2 min 0 min 1,9 UV-I 410 W/m 18,0 km/h (3 Bft)
03.05.2014 16:12 13,2 C 13,9 C 57 % 1024,4 hPa 0,0 l/m 2 min 0 min 1,8 UV-I 756 W/m 15,4 km/h (3 Bft)
03.05.2014 16:14 13,3 C 13,9 C 56 % 1024,3 hPa 0,0 l/m 2 min 0 min 1,0 UV-I 717 W/m 18,0 km/h (3 Bft)
03.05.2014 16:16 13,5 C 13,9 C 57 % 1024,4 hPa 0,0 l/m 0 min 0 min 0,8 UV-I 320 W/m 10,3 km/h (2 Bft)
03.05.2014 16:18 13,4 C 13,9 C 56 % 1024,2 hPa 0,0 l/m 0 min 0 min 0,7 UV-I 308 W/m 10,3 km/h (2 Bft)
03.05.2014 16:20 13,4 C 13,3 C 56 % 1024,3 hPa 0,0 l/m 0 min 0 min 0,7 UV-I 285 W/m 23,2 km/h (4 Bft)
03.05.2014 16:22 13,2 C 13,3 C 55 % 1024,3 hPa 0,0 l/m 0 min 0 min 0,6 UV-I 262 W/m 15,4 km/h (3 Bft)
03.05.2014 16:24 13,1 C 13,3 C 56 % 1024,3 hPa 0,0 l/m 0 min 0 min 0,6 UV-I 248 W/m 20,6 km/h (4 Bft)
03.05.2014 16:26 13,1 C 12,8 C 57 % 1024,3 hPa 0,0 l/m 0 min 0 min 0,6 UV-I 241 W/m 12,9 km/h (3 Bft)
03.05.2014 16:28 13,0 C 12,8 C 57 % 1024,3 hPa 0,0 l/m 0 min 0 min 0,6 UV-I 257 W/m 12,9 km/h (3 Bft)
03.05.2014 16:30 13,0 C 13,3 C 57 % 1024,3 hPa 0,0 l/m 0 min 0 min 0,6 UV-I 274 W/m 10,3 km/h (2 Bft)
03.05.2014 16:32 13,0 C 12,8 C 55 % 1024,3 hPa 0,0 l/m 0 min 0 min 0,7 UV-I 281 W/m 12,9 km/h (3 Bft)
03.05.2014 16:34 13,0 C 12,8 C 56 % 1024,3 hPa 0,0 l/m 0 min 0 min 0,7 UV-I 295 W/m 12,9 km/h (3 Bft)
03.05.2014 16:36 13,0 C 13,3 C 57 % 1024,2 hPa 0,0 l/m 0 min 0 min 0,7 UV-I 309 W/m 7,7 km/h (2 Bft)
03.05.2014 16:38 13,1 C 13,3 C 56 % 1024,3 hPa 0,0 l/m 0 min 0 min 0,7 UV-I 309 W/m 10,3 km/h (2 Bft)
03.05.2014 16:40 13,2 C 13,3 C 55 % 1024,3 hPa 0,0 l/m 0 min 0 min 0,6 UV-I 271 W/m 15,4 km/h (3 Bft)
03.05.2014 16:42 13,1 C 13,3 C 55 % 1024,2 hPa 0,0 l/m 0 min 0 min 0,6 UV-I 258 W/m 12,9 km/h (3 Bft)
03.05.2014 16:44 13,1 C 12,8 C 55 % 1024,2 hPa 0,0 l/m 0 min 0 min 0,5 UV-I 241 W/m 15,4 km/h (3 Bft)
03.05.2014 16:46 13,0 C 12,8 C 56 % 1024,2 hPa 0,0 l/m 0 min 0 min 0,5 UV-I 232 W/m 12,9 km/h (3 Bft)
03.05.2014 16:48 12,9 C 12,8 C 55 % 1024,2 hPa 0,0 l/m 0 min 0 min 0,5 UV-I 214 W/m 12,9 km/h (3 Bft)
03.05.2014 16:50 12,9 C 12,8 C 56 % 1024,2 hPa 0,0 l/m 0 min 0 min 0,5 UV-I 213 W/m 12,9 km/h (3 Bft)
03.05.2014 16:52 12,9 C 12,8 C 56 % 1024,2 hPa 0,0 l/m 0 min 0 min 0,5 UV-I 221 W/m 18,0 km/h (3 Bft)
03.05.2014 16:54 12,9 C 12,8 C 56 % 1024,2 hPa 0,0 l/m 0 min 0 min 0,5 UV-I 230 W/m 12,9 km/h (3 Bft)
03.05.2014 16:56 12,9 C 12,8 C 56 % 1024,2 hPa 0,0 l/m 0 min 0 min 0,5 UV-I 241 W/m 15,4 km/h (3 Bft)
03.05.2014 16:58 12,9 C 12,8 C 54 % 1024,2 hPa 0,0 l/m 0 min 0 min 0,5 UV-I 248 W/m 12,9 km/h (3 Bft)
03.05.2014 17:00 12,9 C 12,8 C 54 % 1024,2 hPa 0,0 l/m 0 min 0 min 0,6 UV-I 255 W/m 12,9 km/h (3 Bft)
03.05.2014 17:02 12,9 C 12,8 C 53 % 1024,2 hPa 0,0 l/m 0 min 0 min 0,9 UV-I 269 W/m 18,0 km/h (3 Bft)
03.05.2014 17:06 13,1 C 12,8 C 54 % 1024,1 hPa 0,0 l/m 2 min 0 min 1,1 UV-I 610 W/m 15,4 km/h (3 Bft)
03.05.2014 17:08 13,2 C 12,8 C 55 % 1024,1 hPa 0,0 l/m 2 min 0 min 0,8 UV-I 536 W/m 23,2 km/h (4 Bft)
03.05.2014 17:10 13,4 C 12,8 C 55 % 1024,1 hPa 0,0 l/m 2 min 0 min 0,6 UV-I 396 W/m 18,0 km/h (3 Bft)
03.05.2014 17:12 13,4 C 12,8 C 54 % 1024,1 hPa 0,0 l/m 2 min 0 min 0,9 UV-I 396 W/m 18,0 km/h (3 Bft)
03.05.2014 17:14 13,4 C 12,8 C 55 % 1024,1 hPa 0,0 l/m 2 min 0 min 0,6 UV-I 394 W/m 12,9 km/h (3 Bft)
03.05.2014 17:16 13,4 C 12,8 C 56 % 1024,0 hPa 0,0 l/m 0 min 0 min 0,0 UV-I 251 W/m 10,3 km/h (2 Bft)
03.05.2014 17:18 13,4 C 12,8 C 56 % 1024,1 hPa 0,0 l/m 0 min 0 min 0,5 UV-I 262 W/m 18,0 km/h (3 Bft)
03.05.2014 17:20 13,3 C 12,8 C 56 % 1024,0 hPa 0,0 l/m 0 min 0 min 0,0 UV-I 262 W/m 15,4 km/h (3 Bft)
03.05.2014 17:22 13,2 C 12,8 C 57 % 1024,0 hPa 0,0 l/m 0 min 0 min 0,0 UV-I 262 W/m 18,0 km/h (3 Bft)
03.05.2014 17:24 13,1 C 12,2 C 58 % 1024,0 hPa 0,0 l/m 0 min 0 min 0,0 UV-I 192 W/m 20,6 km/h (4 Bft)
03.05.2014 17:26 13,1 C 12,2 C 58 % 1024,1 hPa 0,0 l/m 0 min 0 min 0,0 UV-I 192 W/m 15,4 km/h (3 Bft)
03.05.2014 17:28 13,1 C 12,2 C 58 % 1024,1 hPa 0,0 l/m 0 min 0 min 0,0 UV-I 163 W/m 18,0 km/h (3 Bft)
03.05.2014 17:30 13,0 C 12,2 C 59 % 1024,1 hPa 0,0 l/m 0 min 0 min 0,0 UV-I 192 W/m 12,9 km/h (3 Bft)
03.05.2014 17:32 12,9 C 12,2 C 58 % 1024,1 hPa 0,0 l/m 0 min 0 min 0,0 UV-I 174 W/m 23,2 km/h (4 Bft)
03.05.2014 17:34 12,8 C 12,2 C 58 % 1024,1 hPa 0,0 l/m 0 min 0 min 0,0 UV-I 188 W/m 20,6 km/h (4 Bft)
03.05.2014 17:36 12,7 C 12,2 C 59 % 1024,1 hPa 0,0 l/m 0 min 0 min 0,0 UV-I 216 W/m 18,0 km/h (3 Bft)
03.05.2014 17:38 12,7 C 12,2 C 59 % 1024,1 hPa 0,0 l/m 0 min 0 min 0,0 UV-I 234 W/m 10,3 km/h (2 Bft)
03.05.2014 17:40 12,7 C 12,2 C 59 % 1024,1 hPa 0,0 l/m 0 min 0 min 0,0 UV-I 236 W/m 18,0 km/h (3 Bft)
03.05.2014 17:42 12,8 C 12,8 C 60 % 1024,1 hPa 0,0 l/m 0 min 0 min 0,0 UV-I 241 W/m 12,9 km/h (3 Bft)
03.05.2014 17:44 12,8 C 12,2 C 59 % 1024,1 hPa 0,0 l/m 0 min 0 min 0,0 UV-I 230 W/m 15,4 km/h (3 Bft)
03.05.2014 17:46 12,8 C 12,2 C 58 % 1024,1 hPa 0,0 l/m 0 min 0 min 0,0 UV-I 230 W/m 15,4 km/h (3 Bft)
03.05.2014 17:48 12,8 C 12,8 C 59 % 1024,1 hPa 0,0 l/m 0 min 0 min 0,0 UV-I 248 W/m 12,9 km/h (3 Bft)
03.05.2014 17:50 12,9 C 12,8 C 59 % 1024,0 hPa 0,0 l/m 2 min 0 min 0,0 UV-I 295 W/m 15,4 km/h (3 Bft)
03.05.2014 17:52 12,9 C 12,8 C 59 % 1024,0 hPa 0,0 l/m 2 min 0 min 0,0 UV-I 332 W/m 15,4 km/h (3 Bft)
03.05.2014 17:54 12,9 C 12,8 C 58 % 1024,0 hPa 0,0 l/m 0 min 0 min 0,0 UV-I 239 W/m 18,0 km/h (3 Bft)
03.05.2014 17:56 13,0 C 12,8 C 60 % 1024,0 hPa 0,0 l/m 0 min 0 min 0,0 UV-I 223 W/m 10,3 km/h (2 Bft)
03.05.2014 17:58 13,1 C 12,8 C 58 % 1024,0 hPa 0,0 l/m 0 min 0 min 0,0 UV-I 221 W/m 12,9 km/h (3 Bft)
03.05.2014 18:00 13,1 C 12,8 C 57 % 1024,0 hPa 0,0 l/m 2 min 0 min 0,0 UV-I 332 W/m 12,9 km/h (3 Bft)
03.05.2014 18:02 13,1 C 12,8 C 57 % 1023,9 hPa 0,0 l/m 2 min 0 min 0,0 UV-I 429 W/m 18,0 km/h (3 Bft)
03.05.2014 18:06 13,1 C 12,8 C 56 % 1023,9 hPa 0,0 l/m 2 min 0 min 0,0 UV-I 257 W/m 12,9 km/h (3 Bft)
03.05.2014 18:08 13,1 C 12,8 C 55 % 1023,9 hPa 0,0 l/m 2 min 0 min 0,0 UV-I 308 W/m 15,4 km/h (3 Bft)
03.05.2014 18:10 13,0 C 12,8 C 55 % 1023,9 hPa 0,0 l/m 2 min 0 min 0,0 UV-I 308 W/m 10,3 km/h (2 Bft)
03.05.2014 18:12 13,1 C 12,8 C 56 % 1024,0 hPa 0,0 l/m 0 min 0 min 0,0 UV-I 197 W/m 10,3 km/h (2 Bft)
03.05.2014 18:14 13,1 C 12,2 C 56 % 1024,0 hPa 0,0 l/m 0 min 0 min 0,0 UV-I 204 W/m 15,4 km/h (3 Bft)
03.05.2014 18:16 13,0 C 12,2 C 55 % 1024,0 hPa 0,0 l/m 0 min 0 min 0,0 UV-I 167 W/m 12,9 km/h (3 Bft)
03.05.2014 18:18 12,9 C 12,2 C 56 % 1024,0 hPa 0,0 l/m 0 min 0 min 0,0 UV-I 209 W/m 12,9 km/h (3 Bft)
03.05.2014 18:20 12,9 C 12,2 C 57 % 1023,9 hPa 0,0 l/m 0 min 0 min 0,0 UV-I 155 W/m 12,9 km/h (3 Bft)
03.05.2014 18:22 13,0 C 12,2 C 57 % 1023,9 hPa 0,0 l/m 2 min 0 min 0,0 UV-I 278 W/m 2,6 km/h (1 Bft)
03.05.2014 18:24 13,1 C 12,2 C 58 % 1023,9 hPa 0,0 l/m 2 min 0 min 0,0 UV-I 329 W/m 15,4 km/h (3 Bft)
03.05.2014 18:26 13,1 C 12,2 C 55 % 1023,9 hPa 0,0 l/m 0 min 0 min 0,0 UV-I 135 W/m 20,6 km/h (4 Bft)
03.05.2014 18:28 13,1 C 12,2 C 56 % 1023,9 hPa 0,0 l/m 0 min 0 min 0,0 UV-I 116 W/m 7,7 km/h (2 Bft)
03.05.2014 18:30 13,2 C 12,2 C 57 % 1023,9 hPa 0,0 l/m 0 min 0 min 0,0 UV-I 100 W/m 12,9 km/h (3 Bft)
03.05.2014 18:32 13,2 C 12,2 C 57 % 1023,8 hPa 0,0 l/m 0 min 0 min 0,0 UV-I 163 W/m 12,9 km/h (3 Bft)
03.05.2014 18:34 13,2 C 12,2 C 57 % 1023,8 hPa 0,0 l/m 0 min 0 min 0,0 UV-I 146 W/m 15,4 km/h (3 Bft)
03.05.2014 18:36 13,2 C 12,2 C 56 % 1023,8 hPa 0,0 l/m 2 min 0 min 0,0 UV-I 213 W/m 10,3 km/h (2 Bft)
03.05.2014 18:38 13,2 C 12,2 C 56 % 1023,8 hPa 0,0 l/m 2 min 0 min 0,0 UV-I 302 W/m 15,4 km/h (3 Bft)
03.05.2014 18:40 13,2 C 12,2 C 57 % 1023,8 hPa 0,0 l/m 0 min 0 min 0,0 UV-I 90 W/m 20,6 km/h (4 Bft)
03.05.2014 18:42 13,1 C 12,2 C 57 % 1023,8 hPa 0,0 l/m 0 min 0 min 0,0 UV-I 88 W/m 23,2 km/h (4 Bft)
03.05.2014 18:44 12,9 C 11,7 C 57 % 1023,9 hPa 0,0 l/m 0 min 0 min 0,0 UV-I 90 W/m 20,6 km/h (4 Bft)
03.05.2014 18:46 12,8 C 11,7 C 57 % 1023,8 hPa 0,0 l/m 0 min 0 min 0,0 UV-I 93 W/m 20,6 km/h (4 Bft)
03.05.2014 18:48 12,7 C 11,7 C 57 % 1023,9 hPa 0,0 l/m 0 min 0 min 0,0 UV-I 98 W/m 20,6 km/h (4 Bft)
03.05.2014 18:50 12,7 C 11,7 C 58 % 1023,9 hPa 0,0 l/m 0 min 0 min 0,0 UV-I 102 W/m 18,0 km/h (3 Bft)
03.05.2014 18:52 12,6 C 11,7 C 58 % 1023,9 hPa 0,0 l/m 0 min 0 min 0,0 UV-I 109 W/m 7,7 km/h (2 Bft)
03.05.2014 18:54 12,6 C 11,7 C 57 % 1023,9 hPa 0,0 l/m 0 min 0 min 0,0 UV-I 107 W/m 18,0 km/h (3 Bft)
03.05.2014 18:56 12,5 C 11,7 C 58 % 1023,9 hPa 0,0 l/m 0 min 0 min 0,0 UV-I 105 W/m 15,4 km/h (3 Bft)
03.05.2014 18:58 12,5 C 11,7 C 58 % 1023,8 hPa 0,0 l/m 0 min 0 min 0,0 UV-I 109 W/m 12,9 km/h (3 Bft)
03.05.2014 19:00 12,5 C 11,7 C 58 % 1023,9 hPa 0,0 l/m 0 min 0 min 0,0 UV-I 109 W/m 18,0 km/h (3 Bft)
03.05.2014 19:02 12,5 C 11,7 C 59 % 1024,0 hPa 0,0 l/m 0 min 0 min 0,0 UV-I 109 W/m 15,4 km/h (3 Bft)
03.05.2014 19:06 12,6 C 11,7 C 58 % 1023,9 hPa 0,0 l/m 0 min 0 min 0,0 UV-I 98 W/m 15,4 km/h (3 Bft)
03.05.2014 19:08 12,6 C 11,7 C 57 % 1024,0 hPa 0,0 l/m 0 min 0 min 0,0 UV-I 91 W/m 20,6 km/h (4 Bft)
03.05.2014 19:10 12,5 C 11,7 C 57 % 1024,0 hPa 0,0 l/m 0 min 0 min 0,0 UV-I 90 W/m 15,4 km/h (3 Bft)
03.05.2014 19:12 12,4 C 11,7 C 58 % 1023,9 hPa 0,0 l/m 0 min 0 min 0,0 UV-I 90 W/m 18,0 km/h (3 Bft)
03.05.2014 19:14 12,4 C 11,7 C 58 % 1023,9 hPa 0,0 l/m 0 min 0 min 0,0 UV-I 84 W/m 15,4 km/h (3 Bft)
03.05.2014 19:16 12,4 C 11,7 C 58 % 1024,0 hPa 0,0 l/m 0 min 0 min 0,0 UV-I 72 W/m 12,9 km/h (3 Bft)
03.05.2014 19:18 12,4 C 11,7 C 59 % 1023,9 hPa 0,0 l/m 0 min 0 min 0,0 UV-I 67 W/m 10,3 km/h (2 Bft)
03.05.2014 19:20 12,4 C 11,7 C 58 % 1024,0 hPa 0,0 l/m 0 min 0 min 0,0 UV-I 62 W/m 10,3 km/h (2 Bft)
03.05.2014 19:22 12,4 C 11,7 C 59 % 1023,9 hPa 0,0 l/m 0 min 0 min 0,0 UV-I 54 W/m 10,3 km/h (2 Bft)
03.05.2014 19:24 12,4 C 11,7 C 59 % 1024,0 hPa 0,0 l/m 0 min 0 min 0,0 UV-I 49 W/m 7,7 km/h (2 Bft)
03.05.2014 19:26 12,5 C 11,1 C 60 % 1024,0 hPa 0,0 l/m 0 min 0 min 0,0 UV-I 44 W/m 7,7 km/h (2 Bft)
03.05.2014 19:28 12,4 C 11,1 C 60 % 1023,9 hPa 0,0 l/m 0 min 0 min 0,0 UV-I 42 W/m 7,7 km/h (2 Bft)
03.05.2014 19:30 12,4 C 11,1 C 59 % 1024,0 hPa 0,0 l/m 0 min 0 min 0,0 UV-I 40 W/m 12,9 km/h (3 Bft)
03.05.2014 19:32 12,4 C 11,1 C 59 % 1024,0 hPa 0,0 l/m 0 min 0 min 0,0 UV-I 39 W/m 10,3 km/h (2 Bft)
03.05.2014 19:34 12,4 C 11,1 C 60 % 1024,0 hPa 0,0 l/m 0 min 0 min 0,0 UV-I 37 W/m 7,7 km/h (2 Bft)
03.05.2014 19:36 12,3 C 11,1 C 59 % 1024,0 hPa 0,0 l/m 0 min 0 min 0,0 UV-I 33 W/m 10,3 km/h (2 Bft)
03.05.2014 19:38 12,3 C 11,1 C 59 % 1024,0 hPa 0,0 l/m 0 min 0 min 0,0 UV-I 33 W/m 12,9 km/h (3 Bft)
03.05.2014 19:40 12,2 C 11,1 C 59 % 1024,0 hPa 0,0 l/m 0 min 0 min 0,0 UV-I 32 W/m 10,3 km/h (2 Bft)
03.05.2014 19:42 12,2 C 11,1 C 60 % 1024,0 hPa 0,0 l/m 0 min 0 min 0,0 UV-I 33 W/m 12,9 km/h (3 Bft)
03.05.2014 19:44 12,2 C 11,1 C 61 % 1024,0 hPa 0,0 l/m 0 min 0 min 0,0 UV-I 32 W/m 12,9 km/h (3 Bft)
03.05.2014 19:46 12,2 C 10,6 C 59 % 1024,0 hPa 0,0 l/m 0 min 0 min 0,0 UV-I 32 W/m 10,3 km/h (2 Bft)
03.05.2014 19:48 12,1 C 10,6 C 60 % 1024,1 hPa 0,0 l/m 0 min 0 min 0,0 UV-I 32 W/m 7,7 km/h (2 Bft)
03.05.2014 19:50 12,1 C 10,6 C 60 % 1024,1 hPa 0,0 l/m 0 min 0 min 0,0 UV-I 32 W/m 7,7 km/h (2 Bft)
03.05.2014 19:52 12,0 C 10,6 C 61 % 1024,1 hPa 0,0 l/m 0 min 0 min 0,0 UV-I 30 W/m 7,7 km/h (2 Bft)
03.05.2014 19:54 11,9 C 10,6 C 61 % 1024,1 hPa 0,0 l/m 0 min 0 min 0,0 UV-I 30 W/m 5,1 km/h (1 Bft)
03.05.2014 19:56 11,9 C 10,6 C 61 % 1024,1 hPa 0,0 l/m 0 min 0 min 0,0 UV-I 30 W/m 5,1 km/h (1 Bft)
03.05.2014 19:58 11,9 C 10,6 C 61 % 1024,1 hPa 0,0 l/m 0 min 0 min 0,0 UV-I 28 W/m 0,0 km/h (0 Bft)
03.05.2014 20:00 11,8 C 10,6 C 61 % 1024,2 hPa 0,0 l/m 0 min 0 min 0,0 UV-I 28 W/m 2,6 km/h (1 Bft)
03.05.2014 20:02 11,8 C 10,6 C 61 % 1024,1 hPa 0,0 l/m 0 min 0 min 0,0 UV-I 26 W/m 0,0 km/h (0 Bft)
03.05.2014 20:06 11,7 C 10,6 C 61 % 1024,2 hPa 0,0 l/m 0 min 0 min 0,0 UV-I 25 W/m 7,7 km/h (2 Bft)
03.05.2014 20:08 11,7 C 10,6 C 61 % 1024,2 hPa 0,0 l/m 0 min 0 min 0,0 UV-I 25 W/m 7,7 km/h (2 Bft)
03.05.2014 20:10 11,7 C 10,0 C 62 % 1024,2 hPa 0,0 l/m 0 min 0 min 0,0 UV-I 23 W/m 0,0 km/h (0 Bft)
03.05.2014 20:12 11,6 C 10,0 C 62 % 1024,2 hPa 0,0 l/m 0 min 0 min 0,0 UV-I 23 W/m 0,0 km/h (0 Bft)
03.05.2014 20:14 11,6 C 10,0 C 62 % 1024,2 hPa 0,0 l/m 0 min 0 min 0,0 UV-I 23 W/m 0,0 km/h (0 Bft)
03.05.2014 20:16 11,6 C 10,0 C 62 % 1024,2 hPa 0,0 l/m 0 min 0 min 0,0 UV-I 21 W/m 2,6 km/h (1 Bft)
03.05.2014 20:18 11,5 C 10,0 C 62 % 1024,2 hPa 0,0 l/m 0 min 0 min 0,0 UV-I 21 W/m 0,0 km/h (0 Bft)
03.05.2014 20:20 11,5 C 10,0 C 62 % 1024,3 hPa 0,0 l/m 0 min 0 min 0,0 UV-I 21 W/m 0,0 km/h (0 Bft)
03.05.2014 20:22 11,4 C 10,0 C 62 % 1024,2 hPa 0,0 l/m 0 min 0 min 0,0 UV-I 21 W/m 0,0 km/h (0 Bft)
03.05.2014 20:24 11,4 C 10,0 C 62 % 1024,3 hPa 0,0 l/m 0 min 0 min 0,0 UV-I 21 W/m 0,0 km/h (0 Bft)
03.05.2014 20:26 11,4 C 10,0 C 62 % 1024,2 hPa 0,0 l/m 0 min 0 min 0,0 UV-I 19 W/m 2,6 km/h (1 Bft)
03.05.2014 20:28 11,4 C 10,0 C 62 % 1024,2 hPa 0,0 l/m 0 min 0 min 0,0 UV-I 19 W/m 10,3 km/h (2 Bft)
03.05.2014 20:30 11,3 C 10,0 C 63 % 1024,2 hPa 0,0 l/m 0 min 0 min 0,0 UV-I 19 W/m 0,0 km/h (0 Bft)
03.05.2014 20:32 11,3 C 10,0 C 63 % 1024,2 hPa 0,0 l/m 0 min 0 min 0,0 UV-I 18 W/m 2,6 km/h (1 Bft)
03.05.2014 20:34 11,3 C 10,0 C 63 % 1024,2 hPa 0,0 l/m 0 min 0 min 0,0 UV-I 18 W/m 0,0 km/h (0 Bft)
03.05.2014 20:36 11,2 C 10,0 C 63 % 1024,2 hPa 0,0 l/m 0 min 0 min 0,0 UV-I 16 W/m 0,0 km/h (0 Bft)
03.05.2014 20:38 11,2 C 9,4 C 64 % 1024,2 hPa 0,0 l/m 0 min 0 min 0,0 UV-I 14 W/m 0,0 km/h (0 Bft)
03.05.2014 20:40 11,1 C 9,4 C 64 % 1024,2 hPa 0,0 l/m 0 min 0 min 0,0 UV-I 14 W/m 2,6 km/h (1 Bft)
03.05.2014 20:42 11,1 C 9,4 C 64 % 1024,1 hPa 0,0 l/m 0 min 0 min 0,0 UV-I 14 W/m 0,0 km/h (0 Bft)
03.05.2014 20:44 11,0 C 9,4 C 64 % 1024,2 hPa 0,0 l/m 0 min 0 min 0,0 UV-I 12 W/m 0,0 km/h (0 Bft)
03.05.2014 20:46 10,9 C 9,4 C 64 % 1024,2 hPa 0,0 l/m 0 min 0 min 0,0 UV-I 12 W/m 0,0 km/h (0 Bft)
03.05.2014 20:48 10,9 C 9,4 C 65 % 1024,1 hPa 0,0 l/m 0 min 0 min 0,0 UV-I 11 W/m 0,0 km/h (0 Bft)
03.05.2014 20:50 10,8 C 8,9 C 66 % 1024,1 hPa 0,0 l/m 0 min 0 min 0,0 UV-I 9 W/m 0,0 km/h (0 Bft)
03.05.2014 20:52 10,7 C 8,9 C 68 % 1024,2 hPa 0,0 l/m 0 min 0 min 0,0 UV-I 9 W/m 0,0 km/h (0 Bft)
03.05.2014 20:54 10,4 C 8,9 C 69 % 1024,2 hPa 0,0 l/m 0 min 0 min 0,0 UV-I 7 W/m 0,0 km/h (0 Bft)
03.05.2014 20:56 10,3 C 8,3 C 68 % 1024,1 hPa 0,0 l/m 0 min 0 min 0,0 UV-I 5 W/m 0,0 km/h (0 Bft)
03.05.2014 20:58 10,3 C 8,3 C 68 % 1024,1 hPa 0,0 l/m 0 min 0 min 0,0 UV-I 5 W/m 0,0 km/h (0 Bft)
03.05.2014 21:00 10,2 C 8,3 C 69 % 1024,2 hPa 0,0 l/m 0 min 0 min 0,0 UV-I 0 W/m 0,0 km/h (0 Bft)
03.05.2014 21:02 10,2 C 8,3 C 69 % 1024,2 hPa 0,0 l/m 0 min 0 min 0,0 UV-I 0 W/m 0,0 km/h (0 Bft)
03.05.2014 21:06 10,1 C 7,8 C 70 % 1024,1 hPa 0,0 l/m 0 min 0 min 0,0 UV-I 0 W/m 0,0 km/h (0 Bft)
03.05.2014 21:08 10,1 C 7,8 C 70 % 1024,1 hPa 0,0 l/m 0 min 0 min 0,0 UV-I 0 W/m 0,0 km/h (0 Bft)
03.05.2014 21:10 9,9 C 7,8 C 71 % 1024,2 hPa 0,0 l/m 0 min 0 min 0,0 UV-I 0 W/m 0,0 km/h (0 Bft)
03.05.2014 21:12 9,8 C 7,2 C 71 % 1024,2 hPa 0,0 l/m 0 min 0 min 0,0 UV-I 0 W/m 0,0 km/h (0 Bft)
03.05.2014 21:14 9,7 C 7,2 C 72 % 1024,2 hPa 0,0 l/m 0 min 0 min 0,0 UV-I 0 W/m 0,0 km/h (0 Bft)
03.05.2014 21:16 9,7 C 7,2 C 72 % 1024,2 hPa 0,0 l/m 0 min 0 min 0,0 UV-I 0 W/m 0,0 km/h (0 Bft)
03.05.2014 21:18 9,7 C 7,2 C 72 % 1024,2 hPa 0,0 l/m 0 min 0 min 0,0 UV-I 0 W/m 0,0 km/h (0 Bft)
03.05.2014 21:20 9,6 C 7,2 C 72 % 1024,2 hPa 0,0 l/m 0 min 0 min 0,0 UV-I 0 W/m 0,0 km/h (0 Bft)
03.05.2014 21:22 9,5 C 7,2 C 72 % 1024,2 hPa 0,0 l/m 0 min 0 min 0,0 UV-I 0 W/m 0,0 km/h (0 Bft)
03.05.2014 21:24 9,4 C 6,7 C 73 % 1024,2 hPa 0,0 l/m 0 min 0 min 0,0 UV-I 0 W/m 0,0 km/h (0 Bft)
03.05.2014 21:26 9,3 C 6,7 C 73 % 1024,2 hPa 0,0 l/m 0 min 0 min 0,0 UV-I 0 W/m 0,0 km/h (0 Bft)
03.05.2014 21:28 9,1 C 6,7 C 74 % 1024,2 hPa 0,0 l/m 0 min 0 min 0,0 UV-I 0 W/m 0,0 km/h (0 Bft)
03.05.2014 21:30 9,0 C 6,7 C 75 % 1024,3 hPa 0,0 l/m 0 min 0 min 0,0 UV-I 0 W/m 0,0 km/h (0 Bft)
03.05.2014 21:32 8,9 C 6,7 C 75 % 1024,2 hPa 0,0 l/m 0 min 0 min 0,0 UV-I 0 W/m 0,0 km/h (0 Bft)
03.05.2014 21:34 8,9 C 6,7 C 75 % 1024,3 hPa 0,0 l/m 0 min 0 min 0,0 UV-I 0 W/m 0,0 km/h (0 Bft)
03.05.2014 21:36 8,9 C 6,7 C 75 % 1024,3 hPa 0,0 l/m 0 min 0 min 0,0 UV-I 0 W/m 0,0 km/h (0 Bft)
03.05.2014 21:38 8,8 C 6,7 C 75 % 1024,2 hPa 0,0 l/m 0 min 0 min 0,0 UV-I 0 W/m 0,0 km/h (0 Bft)
03.05.2014 21:40 8,8 C 6,7 C 76 % 1024,3 hPa 0,0 l/m 0 min 0 min 0,0 UV-I 0 W/m 0,0 km/h (0 Bft)
03.05.2014 21:42 8,7 C 6,1 C 76 % 1024,3 hPa 0,0 l/m 0 min 0 min 0,0 UV-I 0 W/m 0,0 km/h (0 Bft)
03.05.2014 21:44 8,7 C 6,1 C 76 % 1024,3 hPa 0,0 l/m 0 min 0 min 0,0 UV-I 0 W/m 0,0 km/h (0 Bft)
03.05.2014 21:46 8,7 C 6,1 C 76 % 1024,4 hPa 0,0 l/m 0 min 0 min 0,0 UV-I 0 W/m 0,0 km/h (0 Bft)
03.05.2014 21:48 8,6 C 6,1 C 77 % 1024,3 hPa 0,0 l/m 0 min 0 min 0,0 UV-I 0 W/m 0,0 km/h (0 Bft)
03.05.2014 21:50 8,6 C 6,1 C 77 % 1024,3 hPa 0,0 l/m 0 min 0 min 0,0 UV-I 0 W/m 0,0 km/h (0 Bft)
03.05.2014 21:52 8,6 C 6,1 C 78 % 1024,3 hPa 0,0 l/m 0 min 0 min 0,0 UV-I 0 W/m 0,0 km/h (0 Bft)
03.05.2014 21:54 8,5 C 6,1 C 78 % 1024,3 hPa 0,0 l/m 0 min 0 min 0,0 UV-I 0 W/m 0,0 km/h (0 Bft)
03.05.2014 21:56 8,4 C 6,1 C 78 % 1024,3 hPa 0,0 l/m 0 min 0 min 0,0 UV-I 0 W/m 0,0 km/h (0 Bft)
03.05.2014 21:58 8,3 C 6,1 C 78 % 1024,4 hPa 0,0 l/m 0 min 0 min 0,0 UV-I 0 W/m 0,0 km/h (0 Bft)
03.05.2014 22:00 8,3 C 6,1 C 79 % 1024,4 hPa 0,0 l/m 0 min 0 min 0,0 UV-I 0 W/m 0,0 km/h (0 Bft)
03.05.2014 22:02 8,2 C 5,6 C 79 % 1024,4 hPa 0,0 l/m 0 min 0 min 0,0 UV-I 0 W/m 0,0 km/h (0 Bft)
03.05.2014 22:06 7,9 C 5,6 C 80 % 1024,3 hPa 0,0 l/m 0 min 0 min 0,0 UV-I 0 W/m 0,0 km/h (0 Bft)
03.05.2014 22:08 7,9 C 5,6 C 80 % 1024,4 hPa 0,0 l/m 0 min 0 min 0,0 UV-I 0 W/m 0,0 km/h (0 Bft)
03.05.2014 22:10 7,8 C 5,6 C 81 % 1024,4 hPa 0,0 l/m 0 min 0 min 0,0 UV-I 0 W/m 0,0 km/h (0 Bft)
03.05.2014 22:12 7,7 C 5,6 C 81 % 1024,4 hPa 0,0 l/m 0 min 0 min 0,0 UV-I 0 W/m 0,0 km/h (0 Bft)
03.05.2014 22:14 7,7 C 5,6 C 82 % 1024,4 hPa 0,0 l/m 0 min 0 min 0,0 UV-I 0 W/m 0,0 km/h (0 Bft)
03.05.2014 22:16 7,7 C 5,6 C 82 % 1024,4 hPa 0,0 l/m 0 min 0 min 0,0 UV-I 0 W/m 0,0 km/h (0 Bft)
03.05.2014 22:18 7,6 C 5,6 C 82 % 1024,4 hPa 0,0 l/m 0 min 0 min 0,0 UV-I 0 W/m 0,0 km/h (0 Bft)
03.05.2014 22:20 7,6 C 5,6 C 82 % 1024,5 hPa 0,0 l/m 0 min 0 min 0,0 UV-I 0 W/m 0,0 km/h (0 Bft)
03.05.2014 22:22 7,6 C 5,6 C 82 % 1024,4 hPa 0,0 l/m 0 min 0 min 0,0 UV-I 0 W/m 0,0 km/h (0 Bft)
03.05.2014 22:24 7,5 C 5,6 C 83 % 1024,4 hPa 0,0 l/m 0 min 0 min 0,0 UV-I 0 W/m 0,0 km/h (0 Bft)
03.05.2014 22:26 7,5 C 5,6 C 83 % 1024,5 hPa 0,0 l/m 0 min 0 min 0,0 UV-I 0 W/m 0,0 km/h (0 Bft)
03.05.2014 22:28 7,5 C 5,6 C 83 % 1024,5 hPa 0,0 l/m 0 min 0 min 0,0 UV-I 0 W/m 0,0 km/h (0 Bft)
03.05.2014 22:30 7,6 C 6,1 C 83 % 1024,5 hPa 0,0 l/m 0 min 0 min 0,0 UV-I 0 W/m 10,3 km/h (2 Bft)
03.05.2014 22:32 7,8 C 6,1 C 81 % 1024,4 hPa 0,0 l/m 0 min 0 min 0,0 UV-I 0 W/m 0,0 km/h (0 Bft)
03.05.2014 22:34 7,9 C 6,1 C 81 % 1024,4 hPa 0,0 l/m 0 min 0 min 0,0 UV-I 0 W/m 0,0 km/h (0 Bft)
03.05.2014 22:36 8,1 C 6,7 C 80 % 1024,5 hPa 0,0 l/m 0 min 0 min 0,0 UV-I 0 W/m 0,0 km/h (0 Bft)
03.05.2014 22:38 8,2 C 6,7 C 78 % 1024,5 hPa 0,0 l/m 0 min 0 min 0,0 UV-I 0 W/m 0,0 km/h (0 Bft)
03.05.2014 22:40 8,2 C 6,7 C 78 % 1024,5 hPa 0,0 l/m 0 min 0 min 0,0 UV-I 0 W/m 0,0 km/h (0 Bft)
03.05.2014 22:42 8,3 C 6,7 C 77 % 1024,4 hPa 0,0 l/m 0 min 0 min 0,0 UV-I 0 W/m 2,6 km/h (1 Bft)
03.05.2014 22:44 8,4 C 6,7 C 77 % 1024,5 hPa 0,0 l/m 0 min 0 min 0,0 UV-I 0 W/m 0,0 km/h (0 Bft)
03.05.2014 22:46 8,4 C 6,7 C 77 % 1024,5 hPa 0,0 l/m 0 min 0 min 0,0 UV-I 0 W/m 0,0 km/h (0 Bft)
03.05.2014 22:48 8,4 C 6,7 C 76 % 1024,5 hPa 0,0 l/m 0 min 0 min 0,0 UV-I 0 W/m 0,0 km/h (0 Bft)
03.05.2014 22:50 8,3 C 6,7 C 77 % 1024,5 hPa 0,0 l/m 0 min 0 min 0,0 UV-I 0 W/m 0,0 km/h (0 Bft)
03.05.2014 22:52 8,3 C 6,7 C 77 % 1024,6 hPa 0,0 l/m 0 min 0 min 0,0 UV-I 0 W/m 0,0 km/h (0 Bft)
03.05.2014 22:54 8,2 C 6,1 C 77 % 1024,6 hPa 0,0 l/m 0 min 0 min 0,0 UV-I 0 W/m 0,0 km/h (0 Bft)
03.05.2014 22:56 8,1 C 6,1 C 78 % 1024,7 hPa 0,0 l/m 0 min 0 min 0,0 UV-I 0 W/m 0,0 km/h (0 Bft)
03.05.2014 22:58 8,0 C 6,1 C 78 % 1024,7 hPa 0,0 l/m 0 min 0 min 0,0 UV-I 0 W/m 0,0 km/h (0 Bft)
03.05.2014 23:00 8,0 C 6,1 C 78 % 1024,7 hPa 0,0 l/m 0 min 0 min 0,0 UV-I 0 W/m 0,0 km/h (0 Bft)
03.05.2014 23:02 7,9 C 6,1 C 78 % 1024,7 hPa 0,0 l/m 0 min 0 min 0,0 UV-I 0 W/m 2,6 km/h (1 Bft)
03.05.2014 23:06 7,8 C 5,6 C 78 % 1024,8 hPa 0,0 l/m 0 min 0 min 0,0 UV-I 0 W/m 0,0 km/h (0 Bft)
03.05.2014 23:08 7,8 C 5,6 C 78 % 1024,8 hPa 0,0 l/m 0 min 0 min 0,0 UV-I 0 W/m 0,0 km/h (0 Bft)
03.05.2014 23:10 7,8 C 5,6 C 78 % 1024,8 hPa 0,0 l/m 0 min 0 min 0,0 UV-I 0 W/m 0,0 km/h (0 Bft)
03.05.2014 23:12 7,8 C 5,6 C 78 % 1024,8 hPa 0,0 l/m 0 min 0 min 0,0 UV-I 0 W/m 0,0 km/h (0 Bft)
03.05.2014 23:14 7,7 C 5,6 C 78 % 1024,8 hPa 0,0 l/m 0 min 0 min 0,0 UV-I 0 W/m 0,0 km/h (0 Bft)
03.05.2014 23:16 7,7 C 5,6 C 79 % 1024,8 hPa 0,0 l/m 0 min 0 min 0,0 UV-I 0 W/m 0,0 km/h (0 Bft)
03.05.2014 23:18 7,6 C 5,6 C 79 % 1024,8 hPa 0,0 l/m 0 min 0 min 0,0 UV-I 0 W/m 0,0 km/h (0 Bft)
03.05.2014 23:20 7,6 C 5,6 C 79 % 1024,9 hPa 0,0 l/m 0 min 0 min 0,0 UV-I 0 W/m 0,0 km/h (0 Bft)
03.05.2014 23:22 7,6 C 5,0 C 79 % 1024,8 hPa 0,0 l/m 0 min 0 min 0,0 UV-I 0 W/m 0,0 km/h (0 Bft)
03.05.2014 23:24 7,5 C 5,0 C 79 % 1024,8 hPa 0,0 l/m 0 min 0 min 0,0 UV-I 0 W/m 0,0 km/h (0 Bft)
03.05.2014 23:26 7,4 C 5,0 C 79 % 1024,8 hPa 0,0 l/m 0 min 0 min 0,0 UV-I 0 W/m 0,0 km/h (0 Bft)
03.05.2014 23:28 7,4 C 5,0 C 80 % 1024,9 hPa 0,0 l/m 0 min 0 min 0,0 UV-I 0 W/m 0,0 km/h (0 Bft)
03.05.2014 23:30 7,4 C 5,0 C 80 % 1024,8 hPa 0,0 l/m 0 min 0 min 0,0 UV-I 0 W/m 0,0 km/h (0 Bft)
03.05.2014 23:32 7,4 C 5,6 C 80 % 1024,9 hPa 0,0 l/m 0 min 0 min 0,0 UV-I 0 W/m 2,6 km/h (1 Bft)
03.05.2014 23:34 7,5 C 5,6 C 79 % 1024,9 hPa 0,0 l/m 0 min 0 min 0,0 UV-I 0 W/m 0,0 km/h (0 Bft)
03.05.2014 23:36 7,5 C 5,6 C 79 % 1024,9 hPa 0,0 l/m 0 min 0 min 0,0 UV-I 0 W/m 0,0 km/h (0 Bft)
03.05.2014 23:38 7,5 C 5,6 C 79 % 1024,9 hPa 0,0 l/m 0 min 0 min 0,0 UV-I 0 W/m 0,0 km/h (0 Bft)
03.05.2014 23:40 7,6 C 6,1 C 79 % 1024,9 hPa 0,0 l/m 0 min 0 min 0,0 UV-I 0 W/m 0,0 km/h (0 Bft)
03.05.2014 23:42 7,6 C 6,1 C 78 % 1025,0 hPa 0,0 l/m 0 min 0 min 0,0 UV-I 0 W/m 0,0 km/h (0 Bft)
03.05.2014 23:44 7,6 C 6,1 C 78 % 1025,0 hPa 0,0 l/m 0 min 0 min 0,0 UV-I 0 W/m 0,0 km/h (0 Bft)
03.05.2014 23:46 7,5 C 5,6 C 79 % 1025,0 hPa 0,0 l/m 0 min 0 min 0,0 UV-I 0 W/m 0,0 km/h (0 Bft)
03.05.2014 23:48 7,4 C 5,6 C 79 % 1024,9 hPa 0,0 l/m 0 min 0 min 0,0 UV-I 0 W/m 0,0 km/h (0 Bft)
03.05.2014 23:50 7,3 C 5,6 C 79 % 1024,9 hPa 0,0 l/m 0 min 0 min 0,0 UV-I 0 W/m 2,6 km/h (1 Bft)
03.05.2014 23:52 7,3 C 5,6 C 80 % 1025,0 hPa 0,0 l/m 0 min 0 min 0,0 UV-I 0 W/m 0,0 km/h (0 Bft)
03.05.2014 23:54 7,3 C 5,6 C 80 % 1025,0 hPa 0,0 l/m 0 min 0 min 0,0 UV-I 0 W/m 0,0 km/h (0 Bft)
03.05.2014 23:56 7,3 C 5,6 C 80 % 1025,0 hPa 0,0 l/m 0 min 0 min 0,0 UV-I 0 W/m 0,0 km/h (0 Bft)
03.05.2014 23:58 7,3 C 5,6 C 80 % 1025,0 hPa 0,0 l/m 0 min 0 min 0,0 UV-I 0 W/m 0,0 km/h (0 Bft)
_ Min-Zeit 06:26 05:46 15:08 00:00 - - - - - 00:02
Minimum _ 4,1 C 3,3 C 51 % 1022,8 hPa - - - - - 0,0 km/h (0 Bft)
_ Max-Zeit 15:08 12:08 06:46 10:58 00:00 08:16 00:00 12:40 14:38 11:10
Maximum _ 14,3 C 15,0 C 94 % 1025,4 hPa 0,0 l/m 2 min 0 min 3,3 UV-I 991 W/m 28,3 km/h
NW (4 Bft)
Durchschnitt _ 9,5 C 8,9 C 70 % 1024,2 hPa #0,0 l/m #5:48 h #0 min. 1,5 UV-I 326 W/m 9,8 km/h (2 Bft)
© 2014 W. Hausmann